| time (UTC) | temp C | wind direction | speed KPH | gust KPH | rain 1hr cm | rain 24hr cm | rain mn cm | humidity % | barometer mb |
| 20260507052600 | 7 | 338 | 8.0 | 16.1 | 0.00 | 1.80 | 0.00 | 89 | 1012.6 |
| 20260507052418 | 7 | 45 | 8.0 | 16.1 | 0.00 | 1.80 | 0.00 | 89 | 1012.5 |
| 20260507052220 | 7 | 135 | 8.0 | 17.7 | 0.00 | 1.80 | 0.00 | 90 | 1012.5 |
| 20260507052040 | 7 | 68 | 8.0 | 17.7 | 0.00 | 1.80 | 0.00 | 90 | 1012.5 |
| 20260507051900 | 7 | 68 | 8.0 | 17.7 | 0.00 | 1.80 | 0.00 | 89 | 1012.5 |
| 20260507051715 | 7 | 68 | 6.4 | 14.5 | 0.00 | 1.80 | 0.00 | 89 | 1012.5 |
| 20260507051520 | 7 | 22 | 6.4 | 14.5 | 0.00 | 1.80 | 0.00 | 89 | 1012.6 |
| 20260507051325 | 7 | 90 | 4.8 | 14.5 | 0.00 | 1.83 | 0.00 | 90 | 1012.4 |
| 20260507051215 | 7 | 22 | 4.8 | 11.3 | 0.00 | 1.83 | 0.00 | 89 | 1012.6 |
| 20260507051137 | 7 | 90 | 4.8 | 9.7 | 0.00 | 1.83 | 0.00 | 90 | 1012.6 |
| 20260507050940 | 7 | 45 | 6.4 | 9.7 | 0.00 | 1.83 | 0.00 | 89 | 1012.4 |
| 20260507050745 | 7 | 45 | 6.4 | 14.5 | 0.00 | 1.83 | 0.00 | 89 | 1012.4 |
| 20260507050600 | 7 | 45 | 6.4 | 14.5 | 0.00 | 1.83 | 0.00 | 90 | 1012.5 |
| 20260507050415 | 7 | 90 | 6.4 | 14.5 | 0.00 | 1.83 | 0.00 | 89 | 1012.4 |
| 20260507050229 | 7 | 22 | 6.4 | 12.9 | 0.00 | 1.88 | 0.00 | 89 | 1012.6 |
| 20260507050035 | 7 | 22 | 4.8 | 12.9 | 0.00 | 1.88 | 0.00 | 89 | 1012.4 |
| 20260507045845 | 7 | 68 | 4.8 | 11.3 | 0.00 | 1.88 | 0.00 | 89 | 1012.4 |
| 20260507045645 | 7 | 22 | 6.4 | 16.1 | 0.00 | 1.93 | 0.00 | 89 | 1012.4 |
| 20260507045532 | 7 | 45 | 6.4 | 16.1 | 0.00 | 1.93 | 0.00 | 89 | 1012.4 |
| 20260507045504 | 7 | 45 | 6.4 | 16.1 | 0.00 | 1.93 | 0.00 | 89 | 1012.4 |
| 20260507045325 | 7 | 22 | 6.4 | 16.1 | 0.00 | 1.93 | 0.00 | 89 | 1012.3 |
| 20260507045140 | 7 | 45 | 6.4 | 11.3 | 0.00 | 1.96 | 0.00 | 89 | 1012.3 |
| 20260507044945 | 7 | 22 | 6.4 | 11.3 | 0.00 | 1.96 | 0.00 | 89 | 1012.3 |
| 20260507044757 | 7 | 22 | 6.4 | 11.3 | 0.00 | 1.96 | 0.00 | 90 | 1012.2 |
| 20260507044618 | 7 | 112 | 6.4 | 9.7 | 0.00 | 2.01 | 0.00 | 90 | 1012.2 |
| 20260507044439 | 7 | 22 | 6.4 | 20.9 | 0.00 | 2.01 | 0.00 | 90 | 1012.2 |
| 20260507044300 | 7 | 68 | 6.4 | 20.9 | 0.00 | 2.01 | 0.00 | 90 | 1012.2 |
| 20260507044100 | 7 | 90 | 6.4 | 20.9 | 0.00 | 2.03 | 0.00 | 90 | 1012.0 |
| 20260507043901 | 7 | 45 | 8.0 | 16.1 | 0.00 | 2.03 | 0.00 | 90 | 1012.2 |
| 20260507043715 | 7 | 68 | 8.0 | 14.5 | 0.00 | 2.08 | 0.00 | 90 | 1012.1 |
| 20260507043649 | 7 | 22 | 8.0 | 14.5 | 0.00 | 2.08 | 0.00 | 90 | 1012.1 |
| 20260507043520 | 7 | 315 | 8.0 | 14.5 | 0.00 | 2.08 | 0.00 | 90 | 1012.0 |
| 20260507043323 | 7 | 0 | 9.7 | 16.1 | 0.00 | 2.08 | 0.00 | 90 | 1012.1 |
| 20260507043132 | 7 | 22 | 9.7 | 16.1 | 0.00 | 2.11 | 0.00 | 90 | 1012.0 |
| 20260507042933 | 7 | 0 | 8.0 | 14.5 | 0.00 | 2.11 | 0.00 | 90 | 1012.0 |
| 20260507042755 | 7 | 22 | 8.0 | 14.5 | 0.00 | 2.11 | 0.00 | 90 | 1011.9 |
| 20260507042600 | 7 | 0 | 6.4 | 14.5 | 0.00 | 2.16 | 0.00 | 90 | 1011.9 |
| 20260507042408 | 7 | 22 | 6.4 | 14.5 | 0.00 | 2.16 | 0.00 | 90 | 1012.0 |
| 20260507042215 | 7 | 45 | 4.8 | 11.3 | 0.00 | 2.16 | 0.00 | 90 | 1012.0 |
| 20260507042019 | 7 | 68 | 4.8 | 11.3 | 0.00 | 2.21 | 0.00 | 90 | 1012.1 |
| 20260507041926 | 7 | 90 | 4.8 | 11.3 | 0.00 | 2.21 | 0.00 | 90 | 1012.0 |
| 20260507041835 | 7 | 292 | 4.8 | 11.3 | 0.00 | 2.21 | 0.00 | 91 | 1012.1 |
| 20260507041637 | 7 | 68 | 4.8 | 9.7 | 0.00 | 2.21 | 0.00 | 90 | 1012.1 |
| 20260507041455 | 7 | 22 | 4.8 | 11.3 | 0.00 | 2.24 | 0.00 | 91 | 1012.0 |
| 20260507041315 | 7 | 45 | 4.8 | 11.3 | 0.00 | 2.24 | 0.00 | 91 | 1012.0 |
| 20260507041133 | 7 | 68 | 4.8 | 11.3 | 0.00 | 2.24 | 0.00 | 91 | 1012.0 |
| 20260507040935 | 7 | 22 | 4.8 | 9.7 | 0.00 | 2.29 | 0.00 | 91 | 1012.0 |
| 20260507040740 | 7 | 45 | 3.2 | 8.0 | 0.00 | 2.29 | 0.00 | 91 | 1012.0 |
| 20260507040600 | 7 | 22 | 3.2 | 8.0 | 0.00 | 2.29 | 0.00 | 91 | 1012.0 |
| 20260507040405 | 7 | 68 | 3.2 | 8.0 | 0.00 | 2.31 | 0.00 | 91 | 1011.9 |
| 20260507040230 | 7 | 45 | 3.2 | 8.0 | 0.00 | 2.31 | 0.00 | 90 | 1011.8 |
| 20260507040057 | 7 | 45 | 3.2 | 8.0 | 0.00 | 2.31 | 0.00 | 90 | 1011.9 |
| 20260507040045 | 7 | 45 | 3.2 | 8.0 | 0.00 | 2.31 | 0.00 | 90 | 1011.9 |
| 20260507035900 | 7 | 90 | 4.8 | 6.4 | 0.00 | 2.36 | 0.00 | 90 | 1011.9 |
| 20260507035720 | 7 | 90 | 4.8 | 8.0 | 0.00 | 2.36 | 0.00 | 90 | 1011.9 |
| 20260507035537 | 7 | 90 | 4.8 | 6.4 | 0.00 | 2.36 | 0.00 | 90 | 1011.8 |
| 20260507035350 | 7 | 90 | 6.4 | 9.7 | 0.00 | 2.39 | 0.00 | 90 | 1011.7 |
| 20260507035200 | 7 | 45 | 6.4 | 12.9 | 0.00 | 2.39 | 0.00 | 90 | 1011.6 |
| 20260507035005 | 7 | 22 | 6.4 | 12.9 | 0.00 | 2.39 | 0.00 | 90 | 1011.5 |
| 20260507034804 | 7 | 90 | 4.8 | 9.7 | 0.00 | 2.44 | 0.00 | 90 | 1011.6 |
| 20260507034628 | 7 | 45 | 4.8 | 9.7 | 0.00 | 2.44 | 0.00 | 90 | 1011.6 |
| 20260507034515 | 7 | 22 | 4.8 | 9.7 | 0.00 | 2.44 | 0.00 | 90 | 1011.6 |
| 20260507034450 | 7 | 45 | 4.8 | 8.0 | 0.00 | 2.44 | 0.00 | 90 | 1011.5 |
| 20260507034305 | 7 | 45 | 3.2 | 8.0 | 0.00 | 2.49 | 0.00 | 90 | 1011.6 |
| 20260507034128 | 7 | 45 | 3.2 | 16.1 | 0.00 | 2.49 | 0.00 | 90 | 1011.6 |
| 20260507033940 | 7 | 45 | 4.8 | 16.1 | 0.00 | 2.49 | 0.00 | 90 | 1011.5 |
| 20260507033755 | 7 | 45 | 4.8 | 16.1 | 0.00 | 2.49 | 0.00 | 90 | 1011.6 |
| 20260507033615 | 7 | 68 | 4.8 | 8.0 | 0.00 | 2.49 | 0.00 | 90 | 1011.6 |
| 20260507033425 | 7 | 45 | 4.8 | 9.7 | 0.00 | 2.49 | 0.00 | 90 | 1011.6 |
| 20260507033245 | 7 | 90 | 6.4 | 12.9 | 0.00 | 2.49 | 0.00 | 90 | 1011.6 |
| 20260507033049 | 7 | 68 | 6.4 | 12.9 | 0.00 | 2.49 | 0.00 | 90 | 1011.5 |
| 20260507032900 | 7 | 45 | 8.0 | 12.9 | 0.00 | 2.49 | 0.00 | 91 | 1011.5 |
| 20260507032854 | 7 | 45 | 6.4 | 12.9 | 0.00 | 2.51 | 0.00 | 91 | 1011.5 |
| 20260507032705 | 7 | 68 | 8.0 | 14.5 | 0.00 | 2.51 | 0.00 | 91 | 1011.5 |
| 20260507032509 | 7 | 22 | 8.0 | 14.5 | 0.00 | 2.51 | 0.00 | 90 | 1011.5 |
| 20260507032325 | 7 | 68 | 9.7 | 14.5 | 0.00 | 2.57 | 0.00 | 90 | 1011.5 |
| 20260507032129 | 7 | 22 | 9.7 | 11.3 | 0.00 | 2.57 | 0.00 | 91 | 1011.6 |
| 20260507031929 | 7 | 68 | 8.0 | 16.1 | 0.00 | 2.57 | 0.00 | 91 | 1011.6 |
| 20260507031753 | 7 | 68 | 8.0 | 19.3 | 0.00 | 2.57 | 0.00 | 91 | 1011.6 |
| 20260507031555 | 7 | 68 | 8.0 | 19.3 | 0.00 | 2.57 | 0.00 | 91 | 1011.5 |
| 20260507031415 | 7 | 68 | 6.4 | 17.7 | 0.00 | 2.57 | 0.00 | 90 | 1011.4 |
| 20260507031225 | 7 | 22 | 6.4 | 20.9 | 0.00 | 2.57 | 0.00 | 90 | 1011.5 |
| 20260507031040 | 7 | 68 | 8.0 | 20.9 | 0.00 | 2.59 | 0.00 | 91 | 1011.4 |
| 20260507031021 | 7 | 68 | 8.0 | 20.9 | 0.00 | 2.59 | 0.00 | 91 | 1011.3 |
| 20260507030900 | 7 | 112 | 8.0 | 20.9 | 0.00 | 2.59 | 0.00 | 90 | 1011.4 |
| 20260507030712 | 7 | 68 | 8.0 | 17.7 | 0.00 | 2.59 | 0.00 | 91 | 1011.4 |
| 20260507030525 | 7 | 68 | 8.0 | 17.7 | 0.00 | 2.59 | 0.00 | 91 | 1011.4 |
| 20260507030345 | 7 | 90 | 8.0 | 17.7 | 0.00 | 2.59 | 0.00 | 90 | 1011.4 |
| 20260507030148 | 7 | 22 | 6.4 | 11.3 | 0.00 | 2.59 | 0.00 | 91 | 1011.4 |
| 20260507030000 | 7 | 68 | 6.4 | 17.7 | 0.00 | 2.64 | 0.00 | 91 | 1011.5 |
| 20260507025805 | 7 | 90 | 8.0 | 17.7 | 0.00 | 2.64 | 0.00 | 91 | 1011.4 |
| 20260507025620 | 7 | 22 | 6.4 | 17.7 | 0.00 | 2.64 | 0.00 | 91 | 1011.4 |
| 20260507025508 | 7 | 45 | 6.4 | 12.9 | 0.00 | 2.64 | 0.00 | 91 | 1011.4 |
| 20260507025425 | 7 | 68 | 6.4 | 12.9 | 0.00 | 2.64 | 0.00 | 91 | 1011.4 |
| 20260507025238 | 7 | 22 | 6.4 | 9.7 | 0.00 | 2.64 | 0.00 | 91 | 1011.4 |
| 20260507025057 | 7 | 22 | 6.4 | 9.7 | 0.00 | 2.64 | 0.00 | 91 | 1011.4 |
| 20260507024858 | 7 | 22 | 6.4 | 9.7 | 0.00 | 2.64 | 0.00 | 91 | 1011.4 |
| 20260507024712 | 7 | 315 | 8.0 | 11.3 | 0.00 | 2.64 | 0.00 | 91 | 1011.4 |
| 20260507024525 | 7 | 22 | 9.7 | 16.1 | 0.00 | 2.64 | 0.00 | 91 | 1011.3 |
| 20260507024328 | 7 | 22 | 8.0 | 16.1 | 0.00 | 2.69 | 0.00 | 91 | 1011.3 |
| 20260507024142 | 7 | 68 | 8.0 | 17.7 | 0.00 | 2.69 | 0.00 | 91 | 1011.2 |
| 20260507024000 | 7 | 68 | 6.4 | 17.7 | 0.00 | 2.69 | 0.00 | 91 | 1011.2 |
| 20260507023809 | 7 | 22 | 6.4 | 17.7 | 0.00 | 2.69 | 0.00 | 91 | 1011.2 |
| 20260507023642 | 7 | 68 | 6.4 | 12.9 | 0.00 | 2.69 | 0.00 | 91 | 1011.2 |
| 20260507023608 | 7 | 68 | 4.8 | 12.9 | 0.00 | 2.69 | 0.00 | 91 | 1011.3 |
| 20260507023417 | 7 | 90 | 4.8 | 11.3 | 0.00 | 2.69 | 0.00 | 91 | 1011.2 |
| 20260507023225 | 7 | 338 | 6.4 | 16.1 | 0.00 | 2.69 | 0.00 | 91 | 1011.2 |
| 20260507023044 | 7 | 22 | 6.4 | 16.1 | 0.00 | 2.69 | 0.00 | 91 | 1011.2 |
| 20260507022900 | 7 | 68 | 6.4 | 16.1 | 0.00 | 2.69 | 0.00 | 91 | 1011.2 |
| 20260507022709 | 7 | 45 | 4.8 | 9.7 | 0.00 | 2.69 | 0.00 | 91 | 1011.3 |
| 20260507022520 | 7 | 90 | 4.8 | 9.7 | 0.00 | 2.69 | 0.00 | 91 | 1011.1 |
| 20260507022325 | 7 | 112 | 4.8 | 8.0 | 0.00 | 2.69 | 0.00 | 91 | 1011.2 |
| 20260507022140 | 7 | 45 | 4.8 | 9.7 | 0.00 | 2.69 | 0.00 | 91 | 1011.2 |
| 20260507021955 | 7 | 45 | 4.8 | 9.7 | 0.00 | 2.69 | 0.00 | 91 | 1011.2 |
| 20260507021831 | 7 | 90 | 4.8 | 14.5 | 0.00 | 2.69 | 0.00 | 91 | 1011.2 |
| 20260507021805 | 7 | 68 | 4.8 | 14.5 | 0.00 | 2.69 | 0.00 | 91 | 1011.2 |
| 20260507021623 | 7 | 22 | 4.8 | 14.5 | 0.00 | 2.69 | 0.00 | 91 | 1011.2 |
| 20260507021429 | 7 | 45 | 4.8 | 14.5 | 0.00 | 2.72 | 0.00 | 91 | 1011.2 |
| 20260507021240 | 7 | 22 | 4.8 | 9.7 | 0.00 | 2.72 | 0.00 | 91 | 1011.2 |
| 20260507021048 | 7 | 22 | 4.8 | 9.7 | 0.00 | 2.72 | 0.00 | 91 | 1011.2 |
| 20260507020900 | 7 | 292 | 6.4 | 9.7 | 0.00 | 2.72 | 0.00 | 91 | 1011.1 |
| 20260507020700 | 7 | 45 | 6.4 | 11.3 | 0.00 | 2.72 | 0.00 | 91 | 1011.2 |
| 20260507020514 | 7 | 22 | 6.4 | 16.1 | 0.00 | 2.72 | 0.00 | 91 | 1011.0 |
| 20260507020323 | 7 | 45 | 4.8 | 16.1 | 0.00 | 2.72 | 0.00 | 91 | 1011.0 |
| 20260507020203 | 7 | 90 | 4.8 | 16.1 | 0.00 | 2.72 | 0.00 | 91 | 1010.9 |
| 20260507020125 | 7 | 68 | 4.8 | 16.1 | 0.00 | 2.72 | 0.00 | 91 | 1010.9 |
| 20260507015929 | 7 | 45 | 4.8 | 14.5 | 0.00 | 2.72 | 0.00 | 91 | 1010.9 |
| 20260507015740 | 7 | 22 | 4.8 | 14.5 | 0.00 | 2.72 | 0.00 | 91 | 1011.0 |
| 20260507015540 | 7 | 68 | 4.8 | 8.0 | 0.00 | 2.72 | 0.00 | 91 | 1011.1 |
| 20260507015345 | 7 | 22 | 6.4 | 11.3 | 0.00 | 2.72 | 0.00 | 91 | 1011.0 |
| 20260507015145 | 7 | 45 | 6.4 | 11.3 | 0.00 | 2.72 | 0.00 | 91 | 1011.0 |
| 20260507014946 | 7 | 0 | 4.8 | 11.3 | 0.00 | 2.77 | 0.00 | 91 | 1010.9 |
| 20260507014749 | 7 | 22 | 4.8 | 9.7 | 0.00 | 2.77 | 0.00 | 91 | 1011.0 |
| 20260507014651 | 7 | 22 | 4.8 | 9.7 | 0.00 | 2.77 | 0.00 | 91 | 1011.0 |
| 20260507014555 | 7 | 68 | 3.2 | 9.7 | 0.00 | 2.77 | 0.00 | 91 | 1011.0 |
| 20260507014406 | 7 | 68 | 4.8 | 9.7 | 0.00 | 2.77 | 0.00 | 91 | 1011.1 |
| 20260507014210 | 7 | 45 | 4.8 | 9.7 | 0.00 | 2.77 | 0.00 | 91 | 1011.2 |
| 20260507014015 | 7 | 45 | 3.2 | 8.0 | 0.00 | 2.77 | 0.00 | 91 | 1011.1 |
| 20260507013829 | 7 | 45 | 4.8 | 9.7 | 0.00 | 2.77 | 0.00 | 90 | 1011.2 |
| 20260507013639 | 7 | 68 | 4.8 | 9.7 | 0.00 | 2.77 | 0.00 | 90 | 1011.1 |
| 20260507013504 | 7 | 22 | 4.8 | 9.7 | 0.00 | 2.77 | 0.00 | 90 | 1011.2 |
| 20260507013323 | 7 | 0 | 4.8 | 9.7 | 0.00 | 2.77 | 0.00 | 90 | 1011.1 |
| 20260507013140 | 7 | 45 | 6.4 | 9.7 | 0.00 | 2.77 | 0.00 | 90 | 1011.3 |
| 20260507012955 | 7 | 45 | 4.8 | 11.3 | 0.00 | 2.77 | 0.00 | 90 | 1011.2 |
| 20260507012915 | 7 | 22 | 4.8 | 11.3 | 0.00 | 2.77 | 0.00 | 90 | 1011.1 |
| 20260507012757 | 7 | 22 | 4.8 | 11.3 | 0.00 | 2.77 | 0.00 | 90 | 1011.2 |
| 20260507012608 | 7 | 90 | 4.8 | 11.3 | 0.00 | 2.77 | 0.00 | 90 | 1011.2 |
| 20260507012409 | 7 | 68 | 4.8 | 9.7 | 0.00 | 2.77 | 0.00 | 90 | 1011.2 |
| 20260507012225 | 7 | 68 | 4.8 | 8.0 | 0.00 | 2.77 | 0.00 | 90 | 1011.1 |
| 20260507012035 | 7 | 22 | 3.2 | 8.0 | 0.00 | 2.77 | 0.00 | 90 | 1011.1 |
| 20260507011840 | 7 | 22 | 4.8 | 8.0 | 0.00 | 2.77 | 0.00 | 90 | 1011.1 |
| 20260507011641 | 7 | 292 | 4.8 | 14.5 | 0.00 | 2.77 | 0.00 | 90 | 1011.2 |
| 20260507011500 | 7 | 22 | 4.8 | 14.5 | 0.00 | 2.77 | 0.00 | 90 | 1011.0 |
| 20260507011404 | 7 | 22 | 6.4 | 14.5 | 0.00 | 2.77 | 0.00 | 90 | 1011.1 |
| 20260507011315 | 7 | 45 | 4.8 | 14.5 | 0.00 | 2.77 | 0.00 | 90 | 1011.1 |
| 20260507011129 | 7 | 45 | 4.8 | 9.7 | 0.00 | 2.77 | 0.00 | 90 | 1011.0 |
| 20260507010943 | 7 | 45 | 6.4 | 11.3 | 0.00 | 2.77 | 0.00 | 90 | 1011.0 |
| 20260507010745 | 7 | 22 | 6.4 | 11.3 | 0.00 | 2.77 | 0.00 | 90 | 1011.0 |
| 20260507010555 | 7 | 22 | 6.4 | 11.3 | 0.00 | 2.77 | 0.00 | 90 | 1011.1 |
| 20260507010418 | 7 | 22 | 4.8 | 9.7 | 0.00 | 2.77 | 0.00 | 90 | 1011.0 |
| 20260507010234 | 7 | 68 | 4.8 | 9.7 | 0.00 | 2.77 | 0.00 | 90 | 1010.9 |
| 20260507010055 | 7 | 112 | 3.2 | 9.7 | 0.00 | 2.77 | 0.00 | 90 | 1010.9 |
| 20260507005859 | 7 | 68 | 4.8 | 9.7 | 0.00 | 2.77 | 0.00 | 90 | 1010.9 |
| 20260507005811 | 7 | 22 | 4.8 | 9.7 | 0.00 | 2.77 | 0.00 | 90 | 1010.8 |
| 20260507005700 | 7 | 338 | 4.8 | 9.7 | 0.00 | 2.77 | 0.00 | 91 | 1010.9 |
| 20260507005505 | 7 | 68 | 4.8 | 8.0 | 0.00 | 2.77 | 0.00 | 91 | 1010.8 |
| 20260507005315 | 7 | 22 | 4.8 | 9.7 | 0.00 | 2.77 | 0.00 | 91 | 1010.8 |
| 20260507004952 | 7 | 45 | 6.4 | 9.7 | 0.00 | 2.77 | 0.00 | 91 | 1010.7 |
| 20260507004753 | 7 | 22 | 4.8 | 9.7 | 0.00 | 2.77 | 0.00 | 91 | 1010.8 |
| 20260507004600 | 7 | 45 | 4.8 | 9.7 | 0.00 | 2.77 | 0.00 | 91 | 1010.8 |
| 20260507004414 | 7 | 22 | 6.4 | 9.7 | 0.00 | 2.77 | 0.00 | 91 | 1010.7 |
| 20260507004240 | 7 | 22 | 6.4 | 9.7 | 0.00 | 2.77 | 0.00 | 90 | 1010.8 |
| 20260507004049 | 7 | 22 | 6.4 | 12.9 | 0.00 | 2.77 | 0.00 | 90 | 1010.7 |
| 20260507004045 | 7 | 68 | 6.4 | 12.9 | 0.00 | 2.77 | 0.00 | 90 | 1010.7 |
| 20260507003904 | 7 | 45 | 6.4 | 12.9 | 0.00 | 2.77 | 0.00 | 90 | 1010.7 |
| 20260507003726 | 7 | 22 | 8.0 | 12.9 | 0.00 | 2.77 | 0.00 | 90 | 1010.7 |
| 20260507003530 | 7 | 22 | 8.0 | 11.3 | 0.00 | 2.77 | 0.00 | 90 | 1010.7 |
| 20260507003345 | 7 | 68 | 8.0 | 12.9 | 0.00 | 2.77 | 0.00 | 90 | 1010.6 |
| 20260507003149 | 7 | 45 | 8.0 | 16.1 | 0.00 | 2.77 | 0.00 | 91 | 1010.6 |
| 20260507003005 | 7 | 22 | 8.0 | 16.1 | 0.00 | 2.77 | 0.00 | 90 | 1010.5 |
| 20260507002818 | 7 | 0 | 6.4 | 14.5 | 0.00 | 2.77 | 0.00 | 91 | 1010.5 |
| 20260507002620 | 7 | 45 | 6.4 | 12.9 | 0.00 | 2.77 | 0.00 | 91 | 1010.5 |
| 20260507002422 | 7 | 22 | 6.4 | 12.9 | 0.00 | 2.77 | 0.00 | 91 | 1010.5 |
| 20260507002420 | 7 | 45 | 6.4 | 12.9 | 0.00 | 2.77 | 0.00 | 91 | 1010.5 |
| 20260507002238 | 7 | 68 | 6.4 | 12.9 | 0.00 | 2.77 | 0.00 | 91 | 1010.5 |
| 20260507002100 | 7 | 22 | 6.4 | 12.9 | 0.00 | 2.77 | 0.00 | 91 | 1010.5 |
| 20260507001915 | 7 | 68 | 8.0 | 17.7 | 0.00 | 2.77 | 0.00 | 90 | 1010.5 |
| 20260507001720 | 7 | 0 | 8.0 | 17.7 | 0.00 | 2.77 | 0.00 | 90 | 1010.5 |
| 20260507001525 | 7 | 68 | 8.0 | 20.9 | 0.00 | 2.77 | 0.00 | 90 | 1010.5 |
| 20260507001326 | 7 | 45 | 8.0 | 20.9 | 0.00 | 2.77 | 0.00 | 90 | 1010.5 |
| 20260507001144 | 7 | 68 | 9.7 | 20.9 | 0.00 | 2.77 | 0.00 | 90 | 1010.5 |
| 20260507001005 | 7 | 22 | 9.7 | 12.9 | 0.00 | 2.77 | 0.00 | 90 | 1010.5 |
| 20260507000805 | 7 | 22 | 11.3 | 12.9 | 0.00 | 2.77 | 0.00 | 90 | 1010.6 |
| 20260507000740 | 7 | 22 | 11.3 | 12.9 | 0.00 | 2.77 | 0.00 | 90 | 1010.5 |
| 20260507000610 | 7 | 45 | 11.3 | 12.9 | 0.00 | 2.77 | 0.00 | 91 | 1010.5 |
| 20260507000415 | 7 | 45 | 11.3 | 33.8 | 0.00 | 2.77 | 0.00 | 91 | 1010.6 |
| 20260507000227 | 7 | 22 | 12.9 | 33.8 | 0.00 | 2.77 | 0.00 | 91 | 1010.6 |
| 20260507000035 | 7 | 45 | 12.9 | 33.8 | 0.00 | 2.77 | 0.00 | 91 | 1010.6 |
| 20260506235840 | 7 | 112 | 9.7 | 27.4 | 0.00 | 2.77 | 0.00 | 91 | 1010.5 |
| 20260506235658 | 7 | 112 | 9.7 | 27.4 | 0.00 | 2.77 | 0.00 | 92 | 1010.5 |
| 20260506235500 | 7 | 45 | 9.7 | 24.1 | 0.00 | 2.77 | 0.00 | 92 | 1010.4 |
| 20260506235318 | 7 | 22 | 6.4 | 24.1 | 0.00 | 2.77 | 0.00 | 92 | 1010.4 |
| 20260506235125 | 7 | 68 | 6.4 | 16.1 | 0.00 | 2.77 | 0.00 | 92 | 1010.5 |
| 20260506235022 | 7 | 112 | 4.8 | 16.1 | 0.00 | 2.77 | 0.00 | 93 | 1010.4 |
| 20260506234938 | 7 | 338 | 4.8 | 9.7 | 0.00 | 2.77 | 0.00 | 92 | 1010.4 |
| 20260506234745 | 7 | 22 | 4.8 | 9.7 | 0.00 | 2.77 | 0.00 | 92 | 1010.5 |
| 20260506234600 | 7 | 45 | 4.8 | 11.3 | 0.00 | 2.77 | 0.00 | 92 | 1010.4 |
| 20260506234402 | 7 | 45 | 4.8 | 11.3 | 0.00 | 2.77 | 0.00 | 93 | 1010.4 |
| 20260506234215 | 7 | 22 | 4.8 | 11.3 | 0.00 | 2.77 | 0.00 | 92 | 1010.5 |
| 20260506234038 | 7 | 22 | 4.8 | 11.3 | 0.00 | 2.77 | 0.00 | 92 | 1010.5 |
| 20260506233844 | 7 | 22 | 4.8 | 8.0 | 0.00 | 2.77 | 0.00 | 92 | 1010.5 |
| 20260506233655 | 8 | 22 | 6.4 | 9.7 | 0.00 | 2.77 | 0.00 | 92 | 1010.5 |
| 20260506233508 | 8 | 22 | 6.4 | 12.9 | 0.00 | 2.77 | 0.00 | 92 | 1010.6 |
| 20260506233312 | 8 | 68 | 6.4 | 12.9 | 0.00 | 2.77 | 0.00 | 92 | 1010.5 |
| 20260506233217 | 8 | 68 | 6.4 | 14.5 | 0.00 | 2.77 | 0.00 | 92 | 1010.4 |
| 20260506233115 | 8 | 22 | 6.4 | 14.5 | 0.00 | 2.77 | 0.00 | 92 | 1010.5 |
| 20260506232935 | 8 | 45 | 4.8 | 14.5 | 0.00 | 2.77 | 0.00 | 92 | 1010.4 |
| 20260506232738 | 8 | 22 | 4.8 | 12.9 | 0.00 | 2.77 | 0.00 | 92 | 1010.4 |
| 20260506232558 | 8 | 22 | 4.8 | 12.9 | 0.00 | 2.77 | 0.00 | 92 | 1010.4 |
| 20260506232418 | 8 | 22 | 6.4 | 12.9 | 0.00 | 2.77 | 0.00 | 92 | 1010.5 |
| 20260506232225 | 8 | 68 | 6.4 | 12.9 | 0.00 | 2.77 | 0.00 | 92 | 1010.4 |
| 20260506232040 | 8 | 22 | 8.0 | 11.3 | 0.00 | 2.77 | 0.00 | 92 | 1010.5 |
| 20260506231844 | 8 | 22 | 9.7 | 17.7 | 0.00 | 2.77 | 0.00 | 92 | 1010.4 |
| 20260506231700 | 8 | 68 | 9.7 | 17.7 | 0.00 | 2.77 | 0.00 | 92 | 1010.4 |
| 20260506231530 | 8 | 68 | 9.7 | 17.7 | 0.00 | 2.77 | 0.00 | 91 | 1010.3 |
| 20260506231515 | 8 | 68 | 9.7 | 17.7 | 0.00 | 2.77 | 0.00 | 91 | 1010.3 |
| 20260506231335 | 8 | 22 | 9.7 | 17.7 | 0.00 | 2.77 | 0.00 | 92 | 1010.3 |
| 20260506231145 | 8 | 45 | 8.0 | 20.9 | 0.00 | 2.77 | 0.00 | 91 | 1010.4 |
| 20260506231005 | 8 | 112 | 6.4 | 20.9 | 0.00 | 2.77 | 0.00 | 92 | 1010.4 |
| 20260506230807 | 8 | 68 | 4.8 | 14.5 | 0.00 | 2.77 | 0.00 | 92 | 1010.4 |
| 20260506230610 | 8 | 22 | 4.8 | 14.5 | 0.00 | 2.77 | 0.00 | 92 | 1010.4 |
| 20260506230431 | 8 | 22 | 4.8 | 14.5 | 0.00 | 2.77 | 0.00 | 92 | 1010.4 |
| 20260506230238 | 8 | 45 | 4.8 | 9.7 | 0.00 | 2.77 | 0.00 | 92 | 1010.3 |
| 20260506230100 | 8 | 68 | 4.8 | 9.7 | 0.00 | 2.77 | 0.00 | 92 | 1010.2 |
| 20260506230022 | 8 | 90 | 4.8 | 9.7 | 0.00 | 2.77 | 0.00 | 92 | 1010.3 |
| 20260506225915 | 8 | 45 | 4.8 | 8.0 | 0.00 | 2.77 | 0.00 | 92 | 1010.3 |
| 20260506225735 | 8 | 45 | 4.8 | 8.0 | 0.00 | 2.77 | 0.00 | 92 | 1010.3 |
| 20260506225547 | 8 | 90 | 4.8 | 8.0 | 0.00 | 2.77 | 0.00 | 92 | 1010.2 |
| 20260506225348 | 8 | 22 | 4.8 | 9.7 | 0.00 | 2.77 | 0.00 | 92 | 1010.2 |
| 20260506225158 | 8 | 22 | 4.8 | 9.7 | 0.00 | 2.77 | 0.00 | 92 | 1010.1 |
| 20260506225003 | 8 | 22 | 6.4 | 8.0 | 0.00 | 2.77 | 0.00 | 92 | 1010.1 |
| 20260506224822 | 8 | 22 | 6.4 | 9.7 | 0.00 | 2.77 | 0.00 | 92 | 1010.1 |
| 20260506224645 | 8 | 90 | 6.4 | 11.3 | 0.00 | 2.77 | 0.00 | 92 | 1010.1 |
| 20260506224442 | 9 | 45 | 6.4 | 16.1 | 0.00 | 2.77 | 0.00 | 92 | 1010.0 |
| 20260506224248 | 9 | 68 | 8.0 | 16.1 | 0.00 | 2.77 | 0.00 | 92 | 1009.9 |
| 20260506224237 | 9 | 45 | 8.0 | 16.1 | 0.00 | 2.77 | 0.00 | 91 | 1009.9 |
| 20260506224108 | 9 | 22 | 6.4 | 16.1 | 0.00 | 2.77 | 0.00 | 92 | 1009.9 |
| 20260506223915 | 9 | 68 | 6.4 | 11.3 | 0.00 | 2.77 | 0.00 | 92 | 1010.0 |
| 20260506223735 | 9 | 0 | 4.8 | 12.9 | 0.00 | 2.77 | 0.00 | 92 | 1009.8 |
| 20260506223555 | 9 | 68 | 4.8 | 12.9 | 0.00 | 2.77 | 0.00 | 92 | 1009.9 |
| 20260506223351 | 9 | 292 | 4.8 | 12.9 | 0.00 | 2.77 | 0.00 | 92 | 1009.8 |
| 20260506223210 | 9 | 225 | 3.2 | 11.3 | 0.00 | 2.77 | 0.00 | 92 | 1009.8 |
| 20260506223015 | 10 | 225 | 4.8 | 11.3 | 0.00 | 2.77 | 0.00 | 92 | 1009.8 |
| 20260506222819 | 10 | 22 | 4.8 | 11.3 | 0.00 | 2.77 | 0.00 | 92 | 1009.8 |
| 20260506222630 | 10 | 22 | 4.8 | 8.0 | 0.00 | 2.77 | 0.00 | 92 | 1009.8 |
| 20260506222600 | 10 | 22 | 4.8 | 8.0 | 0.00 | 2.77 | 0.00 | 92 | 1009.9 |
| 20260506222435 | 10 | 22 | 4.8 | 12.9 | 0.00 | 2.77 | 0.00 | 92 | 1009.8 |
| 20260506222235 | 10 | 22 | 4.8 | 12.9 | 0.00 | 2.77 | 0.00 | 92 | 1009.9 |
| 20260506222045 | 10 | 22 | 4.8 | 12.9 | 0.00 | 2.77 | 0.00 | 92 | 1009.8 |
| 20260506221855 | 10 | 45 | 4.8 | 11.3 | 0.00 | 2.77 | 0.00 | 92 | 1009.9 |
| 20260506221715 | 10 | 22 | 3.2 | 8.0 | 0.00 | 2.77 | 0.00 | 92 | 1009.8 |
| 20260506221538 | 10 | 22 | 3.2 | 8.0 | 0.00 | 2.77 | 0.00 | 92 | 1009.8 |
| 20260506221340 | 10 | 22 | 3.2 | 8.0 | 0.00 | 2.77 | 0.00 | 92 | 1009.8 |
| 20260506221145 | 10 | 22 | 3.2 | 8.0 | 0.00 | 2.77 | 0.00 | 92 | 1009.7 |
| 20260506221005 | 10 | 45 | 4.8 | 8.0 | 0.00 | 2.77 | 0.00 | 92 | 1009.7 |
| 20260506220813 | 10 | 112 | 4.8 | 8.0 | 0.00 | 2.77 | 0.00 | 92 | 1009.7 |
| 20260506220725 | 10 | 112 | 6.4 | 8.0 | 0.00 | 2.77 | 0.00 | 92 | 1009.8 |
| 20260506220628 | 10 | 0 | 6.4 | 9.7 | 0.00 | 2.77 | 0.00 | 92 | 1009.8 |
| 20260506220448 | 10 | 292 | 6.4 | 12.9 | 0.00 | 2.77 | 0.00 | 92 | 1009.7 |
| 20260506220258 | 10 | 68 | 6.4 | 12.9 | 0.00 | 2.77 | 0.00 | 92 | 1009.8 |
| 20260506220120 | 10 | 45 | 6.4 | 14.5 | 0.00 | 2.77 | 0.00 | 92 | 1009.7 |
| 20260506215925 | 10 | 22 | 6.4 | 14.5 | 0.00 | 2.77 | 2.77 | 92 | 1009.7 |
| 20260506215734 | 10 | 22 | 6.4 | 14.5 | 0.00 | 2.77 | 2.77 | 92 | 1009.7 |
| 20260506215545 | 10 | 45 | 4.8 | 9.7 | 0.00 | 2.77 | 2.77 | 92 | 1009.7 |
| 20260506215345 | 10 | 22 | 4.8 | 11.3 | 0.00 | 2.77 | 2.77 | 92 | 1009.8 |
| 20260506215200 | 10 | 22 | 4.8 | 11.3 | 0.00 | 2.77 | 2.77 | 92 | 1009.8 |
| 20260506215018 | 10 | 22 | 4.8 | 11.3 | 0.00 | 2.77 | 2.77 | 92 | 1009.9 |
| 20260506214836 | 10 | 22 | 4.8 | 11.3 | 0.00 | 2.77 | 2.77 | 92 | 1009.8 |
| 20260506214658 | 10 | 45 | 3.2 | 6.4 | 0.00 | 2.77 | 2.77 | 92 | 1009.9 |
| 20260506214507 | 10 | 22 | 3.2 | 6.4 | 0.00 | 2.77 | 2.77 | 92 | 1009.8 |
| 20260506214328 | 10 | 22 | 3.2 | 8.0 | 0.00 | 2.77 | 2.77 | 92 | 1009.8 |
| 20260506214134 | 10 | 45 | 3.2 | 9.7 | 0.00 | 2.77 | 2.77 | 92 | 1009.8 |
| 20260506213935 | 10 | 45 | 3.2 | 9.7 | 0.00 | 2.77 | 2.77 | 92 | 1009.8 |
| 20260506213758 | 10 | 22 | 3.2 | 9.7 | 0.00 | 2.77 | 2.77 | 92 | 1009.7 |
| 20260506213617 | 10 | 22 | 3.2 | 9.7 | 0.00 | 2.77 | 2.77 | 92 | 1009.7 |
| 20260506213435 | 10 | 22 | 4.8 | 9.7 | 0.00 | 2.77 | 2.77 | 92 | 1009.6 |
| 20260506213255 | 10 | 45 | 4.8 | 9.7 | 0.00 | 2.77 | 2.77 | 92 | 1009.6 |
| 20260506213108 | 10 | 22 | 4.8 | 9.7 | 0.00 | 2.77 | 2.77 | 92 | 1009.6 |
| 20260506212915 | 10 | 22 | 6.4 | 9.7 | 0.00 | 2.77 | 2.77 | 92 | 1009.6 |
| 20260506212715 | 10 | 68 | 4.8 | 12.9 | 0.00 | 2.77 | 2.77 | 92 | 1009.5 |
| 20260506212520 | 10 | 68 | 4.8 | 12.9 | 0.00 | 2.77 | 2.77 | 92 | 1009.6 |
| 20260506212345 | 10 | 22 | 4.8 | 12.9 | 0.00 | 2.77 | 2.77 | 92 | 1009.5 |
| 20260506212205 | 10 | 45 | 3.2 | 8.0 | 0.00 | 2.77 | 2.77 | 92 | 1009.6 |
| 20260506212023 | 10 | 45 | 3.2 | 8.0 | 0.00 | 2.77 | 2.77 | 92 | 1009.5 |
| 20260506211838 | 10 | 22 | 3.2 | 8.0 | 0.00 | 2.77 | 2.77 | 92 | 1009.6 |
| 20260506211643 | 10 | 22 | 3.2 | 8.0 | 0.00 | 2.77 | 2.77 | 92 | 1009.6 |
| 20260506211444 | 10 | 68 | 3.2 | 8.0 | 0.00 | 2.77 | 2.77 | 92 | 1009.5 |
| 20260506211432 | 10 | 68 | 3.2 | 8.0 | 0.00 | 2.77 | 2.77 | 92 | 1009.6 |
| 20260506211245 | 10 | 68 | 3.2 | 9.7 | 0.00 | 2.77 | 2.77 | 92 | 1009.5 |
| 20260506211045 | 10 | 0 | 3.2 | 11.3 | 0.00 | 2.77 | 2.77 | 92 | 1009.4 |
| 20260506210855 | 10 | 22 | 3.2 | 11.3 | 0.00 | 2.77 | 2.77 | 92 | 1009.5 |
| 20260506210717 | 10 | 22 | 4.8 | 11.3 | 0.00 | 2.77 | 2.77 | 92 | 1009.5 |
| 20260506210530 | 10 | 0 | 3.2 | 6.4 | 0.00 | 2.77 | 2.77 | 91 | 1009.6 |
| 20260506210330 | 10 | 45 | 4.8 | 9.7 | 0.00 | 2.77 | 2.77 | 91 | 1009.5 |
| 20260506210137 | 10 | 45 | 6.4 | 12.9 | 0.00 | 2.77 | 2.77 | 91 | 1009.4 |
| 20260506205949 | 10 | 90 | 6.4 | 12.9 | 0.00 | 2.77 | 2.77 | 91 | 1009.4 |
| 20260506205750 | 10 | 338 | 6.4 | 11.3 | 0.00 | 2.77 | 2.77 | 91 | 1009.5 |
| 20260506205555 | 10 | 45 | 6.4 | 11.3 | 0.00 | 2.77 | 2.77 | 91 | 1009.4 |
| 20260506205533 | 10 | 68 | 6.4 | 11.3 | 0.00 | 2.77 | 2.77 | 91 | 1009.4 |
| 20260506205410 | 10 | 68 | 6.4 | 11.3 | 0.00 | 2.77 | 2.77 | 91 | 1009.5 |
| 20260506205210 | 10 | 338 | 6.4 | 9.7 | 0.00 | 2.77 | 2.77 | 91 | 1009.5 |
| 20260506205021 | 10 | 45 | 4.8 | 11.3 | 0.00 | 2.77 | 2.77 | 92 | 1009.4 |
| 20260506204835 | 10 | 68 | 6.4 | 11.3 | 0.00 | 2.77 | 2.77 | 91 | 1009.3 |
| 20260506204650 | 10 | 68 | 6.4 | 11.3 | 0.00 | 2.77 | 2.77 | 92 | 1009.3 |
| 20260506204450 | 10 | 22 | 4.8 | 9.7 | 0.00 | 2.77 | 2.77 | 92 | 1009.3 |
| 20260506204255 | 10 | 68 | 4.8 | 11.3 | 0.00 | 2.77 | 2.77 | 92 | 1009.2 |
| 20260506204115 | 10 | 22 | 6.4 | 11.3 | 0.00 | 2.77 | 2.77 | 92 | 1009.2 |
| 20260506203935 | 10 | 45 | 6.4 | 11.3 | 0.00 | 2.77 | 2.77 | 93 | 1009.2 |
| 20260506203823 | 10 | 22 | 6.4 | 14.5 | 0.00 | 2.77 | 2.77 | 93 | 1009.2 |
| 20260506203745 | 10 | 68 | 6.4 | 14.5 | 0.00 | 2.77 | 2.77 | 93 | 1009.2 |
| 20260506203603 | 10 | 90 | 6.4 | 14.5 | 0.00 | 2.77 | 2.77 | 93 | 1009.2 |
| 20260506203428 | 10 | 90 | 8.0 | 14.5 | 0.00 | 2.77 | 2.77 | 93 | 1009.2 |
| 20260506203231 | 10 | 68 | 6.4 | 11.3 | 0.00 | 2.77 | 2.77 | 94 | 1009.2 |
| 20260506203050 | 10 | 68 | 6.4 | 11.3 | 0.00 | 2.77 | 2.77 | 94 | 1009.3 |
| 20260506202848 | 10 | 45 | 6.4 | 11.3 | 0.00 | 2.77 | 2.77 | 94 | 1009.3 |
| 20260506202710 | 10 | 22 | 6.4 | 11.3 | 0.00 | 2.77 | 2.77 | 94 | 1009.3 |
| 20260506202512 | 10 | 22 | 4.8 | 11.3 | 0.00 | 2.77 | 2.77 | 94 | 1009.3 |
| 20260506202335 | 10 | 22 | 4.8 | 8.0 | 0.00 | 2.77 | 2.77 | 94 | 1009.2 |
| 20260506202242 | 10 | 22 | 3.2 | 9.7 | 0.00 | 2.77 | 2.77 | 94 | 1009.4 |
| 20260506202135 | 10 | 22 | 4.8 | 9.7 | 0.00 | 2.77 | 2.77 | 94 | 1009.3 |
| 20260506201950 | 10 | 315 | 3.2 | 9.7 | 0.00 | 2.77 | 2.77 | 94 | 1009.3 |
| 20260506201756 | 10 | 45 | 3.2 | 9.7 | 0.00 | 2.77 | 2.77 | 94 | 1009.3 |
| 20260506201612 | 10 | 45 | 3.2 | 8.0 | 0.00 | 2.77 | 2.77 | 94 | 1009.4 |
| 20260506201416 | 10 | 22 | 3.2 | 6.4 | 0.00 | 2.77 | 2.77 | 94 | 1009.4 |
| 20260506201225 | 10 | 0 | 3.2 | 11.3 | 0.00 | 2.77 | 2.77 | 94 | 1009.4 |
| 20260506201045 | 10 | 0 | 3.2 | 11.3 | 0.00 | 2.77 | 2.77 | 94 | 1009.3 |
| 20260506200857 | 10 | 0 | 3.2 | 11.3 | 0.00 | 2.77 | 2.77 | 94 | 1009.3 |
| 20260506200710 | 10 | 22 | 1.6 | 8.0 | 0.00 | 2.77 | 2.77 | 94 | 1009.3 |
| 20260506200513 | 10 | 22 | 3.2 | 8.0 | 0.00 | 2.77 | 2.77 | 94 | 1009.3 |
| 20260506200338 | 10 | 22 | 1.6 | 8.0 | 0.00 | 2.77 | 2.77 | 94 | 1009.3 |
| 20260506200145 | 10 | 22 | 3.2 | 9.7 | 0.00 | 2.77 | 2.77 | 94 | 1009.3 |
| 20260506200005 | 10 | 22 | 3.2 | 9.7 | 0.00 | 2.77 | 2.77 | 94 | 1009.3 |
| 20260506195830 | 10 | 22 | 3.2 | 9.7 | 0.00 | 2.77 | 2.77 | 94 | 1009.2 |
| 20260506195638 | 10 | 22 | 4.8 | 14.5 | 0.00 | 2.77 | 2.77 | 94 | 1009.3 |
| 20260506195438 | 10 | 22 | 4.8 | 14.5 | 0.00 | 2.77 | 2.77 | 94 | 1009.2 |
| 20260506195248 | 10 | 22 | 4.8 | 14.5 | 0.00 | 2.77 | 2.77 | 94 | 1009.2 |
| 20260506195110 | 10 | 22 | 4.8 | 14.5 | 0.00 | 2.77 | 2.77 | 94 | 1009.2 |
| 20260506194915 | 10 | 22 | 3.2 | 6.4 | 0.00 | 2.77 | 2.77 | 94 | 1009.2 |
| 20260506194725 | 10 | 22 | 3.2 | 6.4 | 0.00 | 2.77 | 2.77 | 94 | 1009.2 |
| 20260506194622 | 10 | 22 | 3.2 | 8.0 | 0.00 | 2.77 | 2.77 | 94 | 1009.2 |
| 20260506194548 | 10 | 22 | 3.2 | 8.0 | 0.00 | 2.77 | 2.77 | 94 | 1009.2 |
| 20260506194355 | 10 | 22 | 3.2 | 8.0 | 0.00 | 2.77 | 2.77 | 94 | 1009.1 |
| 20260506194205 | 10 | 22 | 3.2 | 6.4 | 0.00 | 2.77 | 2.77 | 93 | 1009.1 |
| 20260506194012 | 10 | 22 | 3.2 | 6.4 | 0.00 | 2.77 | 2.77 | 93 | 1009.1 |
| 20260506193818 | 10 | 22 | 3.2 | 6.4 | 0.00 | 2.77 | 2.77 | 93 | 1009.0 |
| 20260506193635 | 10 | 22 | 3.2 | 8.0 | 0.00 | 2.77 | 2.77 | 93 | 1009.1 |
| 20260506193450 | 10 | 22 | 1.6 | 8.0 | 0.00 | 2.77 | 2.77 | 93 | 1009.2 |
| 20260506193255 | 10 | 22 | 1.6 | 8.0 | 0.00 | 2.77 | 2.77 | 93 | 1009.1 |
| 20260506193115 | 10 | 45 | 1.6 | 3.2 | 0.00 | 2.77 | 2.77 | 93 | 1009.2 |
| 20260506192938 | 10 | 45 | 1.6 | 3.2 | 0.00 | 2.77 | 2.77 | 93 | 1009.1 |
| 20260506192924 | 10 | 45 | 3.2 | 3.2 | 0.00 | 2.77 | 2.77 | 93 | 1009.2 |
| 20260506192752 | 10 | 45 | 3.2 | 3.2 | 0.00 | 2.77 | 2.77 | 92 | 1009.2 |
| 20260506192558 | 10 | 45 | 3.2 | 12.9 | 0.00 | 2.77 | 2.77 | 93 | 1009.1 |
| 20260506192416 | 10 | 45 | 3.2 | 12.9 | 0.00 | 2.77 | 2.77 | 92 | 1009.1 |
| 20260506192235 | 10 | 45 | 3.2 | 12.9 | 0.00 | 2.77 | 2.77 | 92 | 1009.1 |
| 20260506192048 | 10 | 22 | 3.2 | 9.7 | 0.00 | 2.77 | 2.77 | 93 | 1009.1 |
| 20260506191855 | 10 | 22 | 3.2 | 9.7 | 0.00 | 2.77 | 2.77 | 92 | 1009.1 |
| 20260506191718 | 10 | 68 | 4.8 | 9.7 | 0.00 | 2.77 | 2.77 | 93 | 1009.1 |
| 20260506191525 | 10 | 22 | 3.2 | 9.7 | 0.00 | 2.77 | 2.77 | 93 | 1009.1 |
| 20260506191330 | 10 | 22 | 3.2 | 9.7 | 0.00 | 2.77 | 2.77 | 92 | 1009.0 |
| 20260506191130 | 10 | 45 | 3.2 | 9.7 | 0.00 | 2.77 | 2.77 | 92 | 1009.1 |
| 20260506191041 | 10 | 68 | 3.2 | 9.7 | 0.00 | 2.77 | 2.77 | 93 | 1009.0 |
| 20260506190935 | 10 | 45 | 3.2 | 6.4 | 0.00 | 2.77 | 2.77 | 93 | 1009.0 |
| 20260506190755 | 10 | 45 | 3.2 | 6.4 | 0.00 | 2.77 | 2.77 | 93 | 1009.0 |
| 20260506190615 | 10 | 45 | 3.2 | 8.0 | 0.00 | 2.77 | 2.77 | 93 | 1009.0 |
| 20260506190435 | 10 | 45 | 3.2 | 8.0 | 0.00 | 2.77 | 2.77 | 93 | 1009.0 |
| 20260506190235 | 10 | 45 | 3.2 | 8.0 | 0.00 | 2.77 | 2.77 | 93 | 1009.0 |
| 20260506190048 | 10 | 22 | 1.6 | 8.0 | 0.00 | 2.77 | 2.77 | 92 | 1009.0 |
| 20260506185858 | 10 | 22 | 1.6 | 8.0 | 0.00 | 2.77 | 2.77 | 92 | 1008.9 |
| 20260506185719 | 10 | 22 | 1.6 | 8.0 | 0.00 | 2.77 | 2.77 | 92 | 1008.9 |
| 20260506185541 | 10 | 22 | 1.6 | 8.0 | 0.00 | 2.77 | 2.77 | 92 | 1008.9 |
| 20260506185501 | 10 | 90 | 1.6 | 3.2 | 0.00 | 2.77 | 2.77 | 92 | 1008.9 |
| 20260506185405 | 10 | 90 | 1.6 | 3.2 | 0.00 | 2.77 | 2.77 | 92 | 1008.8 |
| 20260506185218 | 10 | 112 | 1.6 | 3.2 | 0.00 | 2.77 | 2.77 | 92 | 1008.8 |
| 20260506185037 | 10 | 22 | 3.2 | 12.9 | 0.00 | 2.77 | 2.77 | 92 | 1008.8 |
| 20260506184845 | 10 | 22 | 3.2 | 12.9 | 0.00 | 2.77 | 2.77 | 92 | 1008.7 |
| 20260506184710 | 10 | 22 | 3.2 | 6.4 | 0.00 | 2.77 | 2.77 | 92 | 1008.6 |
| 20260506184513 | 10 | 22 | 3.2 | 9.7 | 0.00 | 2.77 | 2.77 | 92 | 1008.6 |
| 20260506184325 | 10 | 68 | 3.2 | 9.7 | 0.00 | 2.77 | 2.77 | 93 | 1008.6 |
| 20260506184143 | 10 | 68 | 3.2 | 9.7 | 0.00 | 2.77 | 2.77 | 92 | 1008.5 |
| 20260506183955 | 10 | 22 | 3.2 | 6.4 | 0.00 | 2.77 | 2.77 | 92 | 1008.5 |
| 20260506183758 | 11 | 0 | 4.8 | 8.0 | 0.00 | 2.77 | 2.77 | 93 | 1008.5 |
| 20260506183637 | 11 | 45 | 4.8 | 8.0 | 0.00 | 2.77 | 2.77 | 92 | 1008.4 |
| 20260506183610 | 11 | 45 | 4.8 | 8.0 | 0.00 | 2.77 | 2.77 | 92 | 1008.3 |
| 20260506183425 | 11 | 68 | 4.8 | 9.7 | 0.00 | 2.77 | 2.77 | 92 | 1008.3 |
| 20260506183238 | 11 | 22 | 4.8 | 9.7 | 0.00 | 2.77 | 2.77 | 92 | 1008.3 |
| 20260506183055 | 11 | 45 | 4.8 | 9.7 | 0.00 | 2.77 | 2.77 | 92 | 1008.3 |
| 20260506182915 | 11 | 68 | 3.2 | 8.0 | 0.00 | 2.77 | 2.77 | 92 | 1008.4 |
| 20260506182738 | 11 | 22 | 3.2 | 6.4 | 0.00 | 2.77 | 2.77 | 92 | 1008.4 |
| 20260506182558 | 11 | 22 | 3.2 | 8.0 | 0.00 | 2.77 | 2.77 | 92 | 1008.4 |
| 20260506182405 | 11 | 45 | 3.2 | 9.7 | 0.00 | 2.77 | 2.77 | 91 | 1008.4 |
| 20260506182205 | 11 | 68 | 3.2 | 9.7 | 0.00 | 2.77 | 2.77 | 91 | 1008.4 |
| 20260506182010 | 11 | 45 | 3.2 | 9.7 | 0.00 | 2.77 | 2.77 | 91 | 1008.4 |
| 20260506181911 | 11 | 45 | 3.2 | 11.3 | 0.00 | 2.77 | 2.77 | 91 | 1008.3 |
| 20260506181815 | 11 | 68 | 3.2 | 11.3 | 0.00 | 2.77 | 2.77 | 90 | 1008.4 |
| 20260506181634 | 11 | 68 | 3.2 | 11.3 | 0.00 | 2.77 | 2.77 | 90 | 1008.5 |
| 20260506181448 | 11 | 0 | 3.2 | 8.0 | 0.00 | 2.77 | 2.77 | 90 | 1008.5 |
| 20260506181305 | 11 | 45 | 3.2 | 8.0 | 0.00 | 2.77 | 2.77 | 90 | 1008.5 |
| 20260506181125 | 11 | 45 | 3.2 | 8.0 | 0.00 | 2.77 | 2.77 | 91 | 1008.5 |
| 20260506180938 | 11 | 45 | 3.2 | 9.7 | 0.00 | 2.77 | 2.77 | 91 | 1008.5 |
| 20260506180755 | 11 | 45 | 3.2 | 9.7 | 0.00 | 2.77 | 2.77 | 91 | 1008.5 |
| 20260506180607 | 11 | 45 | 3.2 | 11.3 | 0.00 | 2.77 | 2.77 | 91 | 1008.5 |
| 20260506180415 | 11 | 68 | 4.8 | 11.3 | 0.00 | 2.77 | 2.77 | 91 | 1008.4 |
| 20260506180232 | 11 | 68 | 4.8 | 12.9 | 0.00 | 2.77 | 2.77 | 91 | 1008.3 |
| 20260506180035 | 11 | 45 | 4.8 | 12.9 | 0.00 | 2.77 | 2.77 | 92 | 1008.3 |
| 20260506175855 | 11 | 68 | 4.8 | 12.9 | 0.00 | 2.77 | 2.77 | 92 | 1008.4 |
| 20260506175712 | 11 | 338 | 4.8 | 11.3 | 0.00 | 2.77 | 2.77 | 92 | 1008.4 |
| 20260506175535 | 11 | 0 | 4.8 | 11.3 | 0.00 | 2.77 | 2.77 | 92 | 1008.4 |
| 20260506175345 | 11 | 0 | 6.4 | 11.3 | 0.00 | 2.77 | 2.77 | 91 | 1008.4 |
| 20260506175148 | 11 | 45 | 6.4 | 12.9 | 0.00 | 2.77 | 2.77 | 91 | 1008.3 |
| 20260506174958 | 11 | 112 | 6.4 | 12.9 | 0.00 | 2.77 | 2.77 | 92 | 1008.3 |
| 20260506174807 | 11 | 22 | 6.4 | 12.9 | 0.00 | 2.77 | 2.77 | 91 | 1008.2 |
| 20260506174625 | 11 | 22 | 6.4 | 9.7 | 0.00 | 2.77 | 2.77 | 91 | 1008.1 |
| 20260506174430 | 11 | 45 | 4.8 | 9.7 | 0.00 | 2.77 | 2.77 | 91 | 1008.2 |
| 20260506174250 | 11 | 22 | 4.8 | 8.0 | 0.00 | 2.77 | 2.77 | 91 | 1008.1 |
| 20260506174100 | 11 | 68 | 4.8 | 8.0 | 0.00 | 2.77 | 2.77 | 91 | 1008.1 |
| 20260506173924 | 12 | 22 | 3.2 | 8.0 | 0.00 | 2.77 | 2.77 | 91 | 1008.1 |
| 20260506173728 | 12 | 45 | 4.8 | 9.7 | 0.00 | 2.77 | 2.77 | 91 | 1008.1 |
| 20260506173550 | 12 | 45 | 4.8 | 9.7 | 0.00 | 2.77 | 2.77 | 91 | 1008.1 |
| 20260506173405 | 12 | 68 | 4.8 | 9.7 | 0.00 | 2.77 | 2.77 | 91 | 1008.1 |
| 20260506173218 | 12 | 45 | 4.8 | 9.7 | 0.00 | 2.77 | 2.77 | 91 | 1008.1 |
| 20260506173036 | 12 | 22 | 4.8 | 9.7 | 0.00 | 2.77 | 2.77 | 91 | 1008.0 |
| 20260506172855 | 12 | 68 | 6.4 | 9.7 | 0.00 | 2.77 | 2.77 | 91 | 1008.0 |
| 20260506172713 | 12 | 45 | 4.8 | 11.3 | 0.00 | 2.77 | 2.77 | 91 | 1007.9 |
| 20260506172534 | 12 | 45 | 4.8 | 11.3 | 0.00 | 2.77 | 2.77 | 91 | 1008.0 |
| 20260506172335 | 12 | 22 | 4.8 | 14.5 | 0.00 | 2.77 | 2.77 | 91 | 1008.0 |
| 20260506172145 | 12 | 68 | 4.8 | 14.5 | 0.00 | 2.77 | 2.77 | 92 | 1008.0 |
| 20260506172010 | 12 | 22 | 4.8 | 14.5 | 0.00 | 2.77 | 2.77 | 91 | 1008.0 |
| 20260506171820 | 12 | 45 | 4.8 | 8.0 | 0.00 | 2.77 | 2.77 | 91 | 1008.0 |
| 20260506171643 | 12 | 45 | 4.8 | 9.7 | 0.00 | 2.77 | 2.77 | 92 | 1008.0 |
| 20260506171505 | 12 | 0 | 4.8 | 9.7 | 0.00 | 2.77 | 2.77 | 92 | 1008.0 |
| 20260506171342 | 12 | 112 | 4.8 | 9.7 | 0.00 | 2.77 | 2.77 | 92 | 1008.0 |
| 20260506171324 | 12 | 22 | 4.8 | 9.7 | 0.00 | 2.77 | 2.77 | 92 | 1007.9 |
| 20260506171127 | 12 | 45 | 4.8 | 9.7 | 0.00 | 2.77 | 2.77 | 92 | 1008.0 |
| 20260506170938 | 12 | 68 | 3.2 | 8.0 | 0.00 | 2.77 | 2.77 | 91 | 1008.0 |
| 20260506170738 | 12 | 45 | 3.2 | 8.0 | 0.00 | 2.77 | 2.77 | 91 | 1008.0 |
| 20260506170555 | 12 | 22 | 3.2 | 8.0 | 0.00 | 2.77 | 2.77 | 91 | 1008.0 |
| 20260506170415 | 12 | 45 | 3.2 | 8.0 | 0.00 | 2.77 | 2.77 | 91 | 1007.9 |
| 20260506170218 | 12 | 45 | 3.2 | 8.0 | 0.00 | 2.77 | 2.77 | 91 | 1008.0 |
| 20260506170035 | 12 | 45 | 3.2 | 8.0 | 0.00 | 2.77 | 2.77 | 91 | 1008.0 |
| 20260506165850 | 12 | 22 | 3.2 | 6.4 | 0.00 | 2.77 | 2.77 | 91 | 1008.0 |
| 20260506165822 | 12 | 22 | 3.2 | 9.7 | 0.00 | 2.77 | 2.77 | 91 | 1007.9 |
| 20260506165710 | 12 | 90 | 3.2 | 9.7 | 0.00 | 2.77 | 2.77 | 91 | 1008.0 |
| 20260506165523 | 12 | 68 | 3.2 | 9.7 | 0.00 | 2.77 | 2.77 | 92 | 1007.9 |
| 20260506165325 | 12 | 68 | 3.2 | 9.7 | 0.00 | 2.77 | 2.77 | 91 | 1007.9 |
| 20260506165138 | 12 | 22 | 3.2 | 8.0 | 0.00 | 2.77 | 2.77 | 91 | 1007.9 |
| 20260506164938 | 12 | 45 | 3.2 | 12.9 | 0.00 | 2.77 | 2.77 | 91 | 1007.9 |
| 20260506164753 | 12 | 22 | 4.8 | 12.9 | 0.00 | 2.77 | 2.77 | 91 | 1007.8 |
| 20260506164605 | 13 | 45 | 4.8 | 9.7 | 0.00 | 2.77 | 2.77 | 90 | 1007.8 |
| 20260506164415 | 13 | 45 | 3.2 | 9.7 | 0.00 | 2.77 | 2.77 | 90 | 1007.9 |
| 20260506164213 | 13 | 45 | 3.2 | 9.7 | 0.00 | 2.77 | 2.77 | 90 | 1007.8 |
| 20260506164038 | 13 | 45 | 3.2 | 12.9 | 0.00 | 2.77 | 2.77 | 89 | 1007.9 |
| 20260506163958 | 13 | 68 | 3.2 | 12.9 | 0.00 | 2.77 | 2.77 | 89 | 1007.8 |
| 20260506163838 | 13 | 22 | 3.2 | 12.9 | 0.00 | 2.77 | 2.77 | 89 | 1007.8 |
| 20260506163645 | 13 | 45 | 3.2 | 12.9 | 0.00 | 2.77 | 2.77 | 88 | 1007.8 |
| 20260506163505 | 13 | 45 | 3.2 | 6.4 | 0.00 | 2.77 | 2.77 | 89 | 1007.7 |
| 20260506163325 | 13 | 22 | 3.2 | 8.0 | 0.00 | 2.77 | 2.77 | 89 | 1007.7 |
| 20260506163125 | 13 | 22 | 3.2 | 8.0 | 0.00 | 2.77 | 2.77 | 89 | 1007.8 |
| 20260506162945 | 13 | 22 | 3.2 | 8.0 | 0.00 | 2.77 | 2.77 | 88 | 1007.7 |
| 20260506162745 | 13 | 45 | 3.2 | 8.0 | 0.00 | 2.77 | 2.77 | 88 | 1007.8 |
| 20260506162605 | 13 | 22 | 3.2 | 8.0 | 0.00 | 2.77 | 2.77 | 89 | 1007.7 |
| 20260506162407 | 13 | 45 | 3.2 | 8.0 | 0.00 | 2.77 | 2.77 | 89 | 1007.7 |
| 20260506162210 | 13 | 22 | 3.2 | 8.0 | 0.00 | 2.77 | 2.77 | 89 | 1007.8 |
| 20260506162023 | 13 | 22 | 3.2 | 8.0 | 0.00 | 2.77 | 2.77 | 89 | 1007.7 |
| 20260506161830 | 13 | 22 | 3.2 | 8.0 | 0.00 | 2.77 | 2.77 | 88 | 1007.7 |
| 20260506161630 | 13 | 22 | 3.2 | 8.0 | 0.00 | 2.77 | 2.77 | 87 | 1007.7 |
| 20260506161435 | 13 | 22 | 3.2 | 11.3 | 0.00 | 2.77 | 2.77 | 87 | 1007.8 |
| 20260506161105 | 13 | 68 | 3.2 | 11.3 | 0.00 | 2.77 | 2.77 | 87 | 1007.9 |
| 20260506160903 | 13 | 68 | 3.2 | 8.0 | 0.00 | 2.77 | 2.77 | 87 | 1008.0 |
| 20260506160704 | 13 | 22 | 4.8 | 9.7 | 0.00 | 2.77 | 2.77 | 87 | 1007.9 |
| 20260506160611 | 13 | 22 | 4.8 | 9.7 | 0.00 | 2.77 | 2.77 | 87 | 1008.0 |
| 20260506160518 | 13 | 22 | 4.8 | 9.7 | 0.00 | 2.77 | 2.77 | 86 | 1007.9 |
| 20260506160326 | 13 | 90 | 4.8 | 11.3 | 0.00 | 2.77 | 2.77 | 86 | 1007.9 |
| 20260506160140 | 13 | 68 | 4.8 | 11.3 | 0.00 | 2.77 | 2.77 | 87 | 1007.9 |
| 20260506155955 | 13 | 22 | 4.8 | 12.9 | 0.00 | 2.77 | 2.77 | 87 | 1008.0 |
| 20260506155800 | 13 | 0 | 4.8 | 12.9 | 0.00 | 2.77 | 2.77 | 87 | 1008.0 |
| 20260506155612 | 13 | 45 | 3.2 | 11.3 | 0.00 | 2.77 | 2.77 | 87 | 1008.0 |
| 20260506155427 | 13 | 22 | 3.2 | 9.7 | 0.00 | 2.77 | 2.77 | 87 | 1008.0 |
| 20260506155245 | 13 | 45 | 4.8 | 9.7 | 0.00 | 2.77 | 2.77 | 88 | 1008.0 |
| 20260506155050 | 13 | 45 | 4.8 | 9.7 | 0.00 | 2.77 | 2.77 | 88 | 1008.0 |
| 20260506154901 | 13 | 338 | 4.8 | 8.0 | 0.00 | 2.77 | 2.77 | 88 | 1008.1 |
| 20260506154744 | 13 | 22 | 3.2 | 8.0 | 0.00 | 2.77 | 2.77 | 88 | 1008.0 |
| 20260506154713 | 13 | 22 | 3.2 | 8.0 | 0.00 | 2.77 | 2.77 | 89 | 1008.1 |
| 20260506154535 | 13 | 22 | 4.8 | 11.3 | 0.00 | 2.77 | 2.77 | 89 | 1008.1 |
| 20260506154335 | 13 | 22 | 4.8 | 11.3 | 0.00 | 2.77 | 2.77 | 89 | 1008.0 |
| 20260506154145 | 13 | 68 | 4.8 | 11.3 | 0.00 | 2.77 | 2.77 | 89 | 1008.0 |
| 20260506154008 | 13 | 45 | 3.2 | 9.7 | 0.00 | 2.77 | 2.77 | 90 | 1008.0 |
| 20260506153830 | 13 | 68 | 3.2 | 9.7 | 0.00 | 2.77 | 2.77 | 89 | 1008.0 |
| 20260506153650 | 13 | 22 | 3.2 | 11.3 | 0.00 | 2.77 | 2.77 | 88 | 1008.0 |
| 20260506153458 | 13 | 45 | 3.2 | 11.3 | 0.00 | 2.77 | 2.77 | 88 | 1007.9 |
| 20260506153310 | 13 | 0 | 1.6 | 6.4 | 0.00 | 2.77 | 2.77 | 88 | 1008.1 |
| 20260506153125 | 13 | 270 | 1.6 | 3.2 | 0.00 | 2.77 | 2.77 | 88 | 1008.1 |
| 20260506152929 | 13 | 68 | 3.2 | 3.2 | 0.00 | 2.77 | 2.77 | 87 | 1008.0 |
| 20260506152900 | 13 | 68 | 3.2 | 3.2 | 0.00 | 2.77 | 2.77 | 88 | 1008.0 |
| 20260506152737 | 13 | 90 | 3.2 | 8.0 | 0.00 | 2.77 | 2.77 | 88 | 1008.0 |
| 20260506152541 | 13 | 90 | 3.2 | 8.0 | 0.00 | 2.77 | 2.77 | 89 | 1008.0 |
| 20260506152343 | 13 | 90 | 4.8 | 9.7 | 0.00 | 2.77 | 2.77 | 89 | 1007.9 |
| 20260506152201 | 13 | 68 | 4.8 | 9.7 | 0.00 | 2.77 | 2.77 | 89 | 1008.0 |
| 20260506152024 | 13 | 90 | 3.2 | 9.7 | 0.00 | 2.77 | 2.77 | 89 | 1007.9 |
| 20260506151848 | 13 | 22 | 3.2 | 6.4 | 0.00 | 2.77 | 2.77 | 90 | 1008.0 |
| 20260506151710 | 13 | 45 | 3.2 | 8.0 | 0.00 | 2.77 | 2.77 | 90 | 1008.0 |
| 20260506151513 | 13 | 22 | 3.2 | 8.0 | 0.00 | 2.77 | 2.77 | 89 | 1007.9 |
| 20260506151336 | 13 | 45 | 3.2 | 8.0 | 0.00 | 2.77 | 2.77 | 89 | 1008.0 |
| 20260506151141 | 13 | 22 | 3.2 | 8.0 | 0.00 | 2.77 | 2.77 | 91 | 1008.0 |
| 20260506151017 | 13 | 22 | 4.8 | 8.0 | 0.00 | 2.77 | 2.77 | 91 | 1008.1 |
| 20260506150839 | 13 | 22 | 4.8 | 8.0 | 0.00 | 2.77 | 2.77 | 90 | 1008.1 |
| 20260506150700 | 13 | 22 | 4.8 | 8.0 | 0.00 | 2.77 | 2.77 | 90 | 1008.0 |
| 20260506150510 | 12 | 22 | 6.4 | 9.7 | 0.00 | 2.77 | 2.77 | 90 | 1007.9 |
| 20260506150330 | 12 | 22 | 6.4 | 11.3 | 0.00 | 2.77 | 2.77 | 91 | 1007.9 |
| 20260506150155 | 12 | 22 | 6.4 | 11.3 | 0.00 | 2.77 | 2.77 | 91 | 1007.9 |
| 20260506150015 | 13 | 22 | 6.4 | 11.3 | 0.00 | 2.77 | 2.77 | 91 | 1007.8 |
| 20260506145818 | 13 | 22 | 6.4 | 9.7 | 0.00 | 2.77 | 2.77 | 91 | 1007.9 |
| 20260506145639 | 13 | 45 | 6.4 | 9.7 | 0.00 | 2.77 | 2.77 | 91 | 1007.8 |
| 20260506145554 | 13 | 68 | 6.4 | 9.7 | 0.00 | 2.77 | 2.77 | 91 | 1007.8 |
| 20260506145445 | 13 | 0 | 6.4 | 9.7 | 0.00 | 2.77 | 2.77 | 91 | 1007.9 |
| 20260506145306 | 13 | 22 | 6.4 | 9.7 | 0.00 | 2.77 | 2.77 | 92 | 1007.9 |
| 20260506145120 | 13 | 22 | 6.4 | 11.3 | 0.00 | 2.77 | 2.77 | 92 | 1007.9 |
| 20260506144930 | 13 | 90 | 6.4 | 11.3 | 0.00 | 2.77 | 2.77 | 91 | 1007.9 |
| 20260506144750 | 13 | 22 | 4.8 | 11.3 | 0.00 | 2.77 | 2.77 | 91 | 1007.9 |
| 20260506144558 | 13 | 68 | 4.8 | 8.0 | 0.00 | 2.77 | 2.77 | 91 | 1007.8 |
| 20260506144415 | 13 | 22 | 3.2 | 9.7 | 0.00 | 2.77 | 2.77 | 91 | 1007.8 |
| 20260506144229 | 13 | 68 | 4.8 | 9.7 | 0.00 | 2.77 | 2.77 | 91 | 1007.9 |
| 20260506144043 | 13 | 68 | 3.2 | 9.7 | 0.00 | 2.77 | 2.77 | 91 | 1007.8 |
| 20260506143917 | 13 | 45 | 4.8 | 8.0 | 0.00 | 2.77 | 2.77 | 90 | 1007.8 |
| 20260506143850 | 13 | 45 | 3.2 | 8.0 | 0.00 | 2.77 | 2.77 | 89 | 1007.8 |
| 20260506143650 | 13 | 22 | 3.2 | 8.0 | 0.00 | 2.77 | 2.77 | 90 | 1007.9 |
| 20260506143509 | 13 | 45 | 4.8 | 8.0 | 0.00 | 2.77 | 2.77 | 90 | 1007.8 |
| 20260506143318 | 13 | 45 | 4.8 | 11.3 | 0.00 | 2.77 | 2.77 | 89 | 1007.8 |
| 20260506143135 | 13 | 68 | 4.8 | 11.3 | 0.00 | 2.77 | 2.77 | 90 | 1007.8 |
| 20260506142955 | 13 | 90 | 4.8 | 11.3 | 0.00 | 2.77 | 2.77 | 89 | 1007.8 |
| 20260506142758 | 13 | 68 | 3.2 | 8.0 | 0.00 | 2.77 | 2.77 | 89 | 1007.8 |
| 20260506142618 | 13 | 22 | 3.2 | 8.0 | 0.00 | 2.77 | 2.77 | 89 | 1007.8 |
| 20260506142425 | 13 | 45 | 3.2 | 8.0 | 0.00 | 2.77 | 2.77 | 90 | 1007.9 |
| 20260506142235 | 13 | 22 | 3.2 | 8.0 | 0.00 | 2.77 | 2.77 | 91 | 1007.8 |
| 20260506142204 | 13 | 90 | 1.6 | 3.2 | 0.00 | 2.77 | 2.77 | 92 | 1007.8 |
| 20260506142040 | 13 | 90 | 3.2 | 9.7 | 0.00 | 2.77 | 2.77 | 92 | 1007.8 |
| 20260506141845 | 13 | 90 | 3.2 | 9.7 | 0.00 | 2.77 | 2.77 | 92 | 1007.9 |
| 20260506141705 | 13 | 90 | 3.2 | 9.7 | 0.00 | 2.77 | 2.77 | 92 | 1007.8 |
| 20260506141523 | 13 | 68 | 3.2 | 8.0 | 0.00 | 2.77 | 2.77 | 92 | 1007.9 |
| 20260506141345 | 13 | 45 | 3.2 | 8.0 | 0.00 | 2.77 | 2.77 | 92 | 1007.9 |
| 20260506141155 | 13 | 45 | 3.2 | 8.0 | 0.00 | 2.77 | 2.77 | 92 | 1007.9 |
| 20260506140958 | 13 | 22 | 3.2 | 6.4 | 0.00 | 2.77 | 2.77 | 93 | 1008.0 |
| 20260506140805 | 13 | 22 | 3.2 | 8.0 | 0.00 | 2.77 | 2.77 | 93 | 1007.9 |
| 20260506140616 | 13 | 45 | 3.2 | 8.0 | 0.00 | 2.77 | 2.77 | 93 | 1007.9 |
| 20260506140438 | 13 | 45 | 3.2 | 8.0 | 0.00 | 2.77 | 2.77 | 92 | 1008.0 |
| 20260506140238 | 13 | 22 | 3.2 | 9.7 | 0.00 | 2.77 | 2.77 | 93 | 1008.0 |
| 20260506140038 | 12 | 22 | 3.2 | 9.7 | 0.00 | 2.77 | 2.77 | 94 | 1008.0 |
| 20260506135844 | 12 | 22 | 3.2 | 6.4 | 0.00 | 2.77 | 2.77 | 94 | 1007.9 |
| 20260506135650 | 12 | 22 | 4.8 | 8.0 | 0.00 | 2.77 | 2.77 | 94 | 1007.9 |
| 20260506135501 | 12 | 22 | 4.8 | 8.0 | 0.00 | 2.77 | 2.77 | 94 | 1007.9 |
| 20260506135306 | 12 | 45 | 4.8 | 8.0 | 0.00 | 2.77 | 2.77 | 94 | 1007.8 |
| 20260506135125 | 12 | 68 | 3.2 | 8.0 | 0.00 | 2.77 | 2.77 | 95 | 1007.9 |
| 20260506134931 | 12 | 45 | 3.2 | 8.0 | 0.00 | 2.77 | 2.77 | 95 | 1007.8 |
| 20260506134757 | 12 | 68 | 3.2 | 8.0 | 0.00 | 2.77 | 2.77 | 95 | 1007.8 |
| 20260506134733 | 12 | 338 | 3.2 | 8.0 | 0.00 | 2.77 | 2.77 | 95 | 1007.8 |
| 20260506134535 | 12 | 22 | 3.2 | 6.4 | 0.00 | 2.77 | 2.77 | 96 | 1007.9 |
| 20260506134340 | 12 | 22 | 3.2 | 6.4 | 0.00 | 2.77 | 2.77 | 96 | 1007.9 |
| 20260506134150 | 12 | 45 | 4.8 | 8.0 | 0.00 | 2.77 | 2.77 | 96 | 1007.8 |
| 20260506133955 | 12 | 45 | 4.8 | 8.0 | 0.00 | 2.77 | 2.77 | 96 | 1007.8 |
| 20260506133805 | 12 | 45 | 4.8 | 8.0 | 0.00 | 2.77 | 2.77 | 96 | 1007.8 |
| 20260506133625 | 12 | 45 | 6.4 | 9.7 | 0.00 | 2.77 | 2.77 | 96 | 1007.7 |
| 20260506133426 | 12 | 22 | 6.4 | 9.7 | 0.00 | 2.77 | 2.77 | 96 | 1007.8 |
| 20260506133251 | 12 | 22 | 6.4 | 9.7 | 0.00 | 2.77 | 2.77 | 96 | 1007.7 |
| 20260506133213 | 12 | 22 | 6.4 | 9.7 | 0.00 | 2.77 | 2.77 | 96 | 1007.7 |
| 20260506133105 | 12 | 45 | 6.4 | 8.0 | 0.00 | 2.77 | 2.77 | 96 | 1007.8 |
| 20260506132909 | 12 | 45 | 6.4 | 11.3 | 0.00 | 2.77 | 2.77 | 96 | 1007.7 |
| 20260506132732 | 12 | 22 | 4.8 | 11.3 | 0.00 | 2.77 | 2.77 | 96 | 1007.7 |
| 20260506132545 | 12 | 45 | 4.8 | 11.3 | 0.00 | 2.77 | 2.77 | 96 | 1007.7 |
| 20260506132400 | 12 | 45 | 3.2 | 9.7 | 0.00 | 2.77 | 2.77 | 97 | 1007.8 |
| 20260506132218 | 12 | 338 | 3.2 | 9.7 | 0.00 | 2.77 | 2.77 | 97 | 1007.7 |
| 20260506132030 | 12 | 22 | 3.2 | 8.0 | 0.00 | 2.77 | 2.77 | 97 | 1007.8 |
| 20260506131835 | 12 | 45 | 1.6 | 8.0 | 0.00 | 2.77 | 2.77 | 97 | 1007.7 |
| 20260506131635 | 12 | 45 | 1.6 | 8.0 | 0.00 | 2.77 | 2.77 | 97 | 1007.8 |
| 20260506131536 | 12 | 45 | 3.2 | 8.0 | 0.00 | 2.77 | 2.77 | 97 | 1007.7 |
| 20260506131440 | 12 | 45 | 3.2 | 8.0 | 0.00 | 2.77 | 2.77 | 97 | 1007.7 |
| 20260506131250 | 12 | 45 | 1.6 | 8.0 | 0.00 | 2.77 | 2.77 | 97 | 1007.7 |
| 20260506131100 | 12 | 45 | 1.6 | 8.0 | 0.00 | 2.77 | 2.77 | 97 | 1007.8 |
| 20260506130910 | 12 | 68 | 3.2 | 8.0 | 0.00 | 2.77 | 2.77 | 97 | 1007.7 |
| 20260506130715 | 12 | 68 | 1.6 | 8.0 | 0.00 | 2.77 | 2.77 | 97 | 1007.7 |
| 20260506130515 | 12 | 45 | 1.6 | 8.0 | 0.00 | 2.77 | 2.77 | 97 | 1007.8 |
| 20260506130318 | 12 | 68 | 0.0 | 8.0 | 0.00 | 2.77 | 2.77 | 97 | 1007.8 |
| 20260506130130 | 12 | 68 | 0.0 | 8.0 | 0.00 | 2.77 | 2.77 | 97 | 1007.8 |
| 20260506125950 | 12 | 68 | 1.6 | 8.0 | 0.00 | 2.77 | 2.77 | 97 | 1007.8 |
| 20260506125803 | 12 | 45 | 0.0 | 3.2 | 0.00 | 2.77 | 2.77 | 97 | 1007.8 |
| 20260506125701 | 12 | 22 | 1.6 | 3.2 | 0.00 | 2.77 | 2.77 | 97 | 1007.8 |
| 20260506125627 | 12 | 22 | 1.6 | 3.2 | 0.00 | 2.77 | 2.77 | 97 | 1007.8 |
| 20260506125435 | 12 | 22 | 1.6 | 3.2 | 0.00 | 2.77 | 2.77 | 97 | 1007.8 |
| 20260506125300 | 12 | 22 | 1.6 | 6.4 | 0.00 | 2.77 | 2.77 | 97 | 1007.9 |
| 20260506125118 | 12 | 22 | 1.6 | 6.4 | 0.00 | 2.77 | 2.77 | 97 | 1007.8 |
| 20260506124934 | 12 | 22 | 1.6 | 6.4 | 0.00 | 2.77 | 2.77 | 97 | 1007.8 |
| 20260506124745 | 12 | 22 | 1.6 | 6.4 | 0.00 | 2.77 | 2.77 | 98 | 1007.8 |
| 20260506124600 | 12 | 22 | 3.2 | 6.4 | 0.00 | 2.77 | 2.77 | 97 | 1007.9 |
| 20260506124412 | 12 | 90 | 3.2 | 8.0 | 0.00 | 2.77 | 2.77 | 98 | 1007.8 |
| 20260506124215 | 12 | 90 | 3.2 | 8.0 | 0.00 | 2.77 | 2.77 | 98 | 1007.9 |
| 20260506124122 | 12 | 68 | 3.2 | 8.0 | 0.00 | 2.77 | 2.77 | 98 | 1007.9 |
| 20260506124015 | 12 | 68 | 3.2 | 8.0 | 0.00 | 2.77 | 2.77 | 97 | 1007.8 |
| 20260506123830 | 12 | 45 | 3.2 | 8.0 | 0.00 | 2.77 | 2.77 | 98 | 1007.8 |
| 20260506123635 | 12 | 338 | 3.2 | 8.0 | 0.00 | 2.77 | 2.77 | 98 | 1007.7 |
| 20260506123450 | 11 | 45 | 3.2 | 6.4 | 0.00 | 2.77 | 2.77 | 98 | 1007.8 |
| 20260506123255 | 12 | 45 | 1.6 | 8.0 | 0.00 | 2.77 | 2.77 | 98 | 1007.7 |
| 20260506123115 | 12 | 45 | 3.2 | 8.0 | 0.00 | 2.77 | 2.77 | 98 | 1007.7 |
| 20260506122935 | 12 | 68 | 3.2 | 8.0 | 0.00 | 2.77 | 2.77 | 97 | 1007.7 |
| 20260506122750 | 12 | 22 | 1.6 | 8.0 | 0.05 | 2.77 | 2.77 | 98 | 1007.7 |
| 20260506122554 | 12 | 45 | 1.6 | 9.7 | 0.05 | 2.77 | 2.77 | 98 | 1007.7 |
| 20260506122429 | 12 | 68 | 1.6 | 9.7 | 0.05 | 2.77 | 2.77 | 97 | 1007.7 |
| 20260506122245 | 12 | 45 | 1.6 | 9.7 | 0.05 | 2.77 | 2.77 | 97 | 1007.6 |
| 20260506122050 | 12 | 22 | 1.6 | 4.8 | 0.05 | 2.77 | 2.77 | 98 | 1007.7 |
| 20260506121915 | 12 | 22 | 1.6 | 4.8 | 0.05 | 2.77 | 2.77 | 98 | 1007.7 |
| 20260506121718 | 12 | 22 | 1.6 | 4.8 | 0.05 | 2.77 | 2.77 | 98 | 1007.7 |
| 20260506121537 | 11 | 22 | 3.2 | 6.4 | 0.05 | 2.77 | 2.77 | 98 | 1007.6 |
| 20260506121345 | 11 | 22 | 3.2 | 6.4 | 0.05 | 2.77 | 2.77 | 98 | 1007.7 |
| 20260506121145 | 11 | 68 | 3.2 | 8.0 | 0.05 | 2.77 | 2.77 | 98 | 1007.7 |
| 20260506120946 | 11 | 22 | 3.2 | 12.9 | 0.05 | 2.77 | 2.77 | 98 | 1007.7 |
| 20260506120755 | 11 | 0 | 3.2 | 12.9 | 0.05 | 2.77 | 2.77 | 98 | 1007.7 |
| 20260506120558 | 11 | 22 | 3.2 | 12.9 | 0.05 | 2.77 | 2.77 | 97 | 1007.7 |
| 20260506120358 | 11 | 22 | 1.6 | 6.4 | 0.05 | 2.77 | 2.77 | 98 | 1007.7 |
| 20260506120158 | 11 | 22 | 1.6 | 3.2 | 0.05 | 2.77 | 2.77 | 98 | 1007.7 |
| 20260506120020 | 11 | 22 | 3.2 | 3.2 | 0.05 | 2.77 | 2.77 | 98 | 1007.6 |
| 20260506115837 | 11 | 22 | 3.2 | 0.0 | 0.05 | 2.77 | 2.77 | 98 | 1007.6 |
| 20260506115645 | 11 | 22 | 3.2 | 11.3 | 0.05 | 2.77 | 2.77 | 98 | 1007.6 |
| 20260506115449 | 11 | 22 | 3.2 | 11.3 | 0.05 | 2.77 | 2.77 | 98 | 1007.5 |
| 20260506115307 | 11 | 22 | 3.2 | 11.3 | 0.05 | 2.77 | 2.77 | 98 | 1007.6 |
| 20260506115125 | 11 | 22 | 3.2 | 8.0 | 0.05 | 2.77 | 2.77 | 98 | 1007.5 |
| 20260506114930 | 11 | 45 | 3.2 | 8.0 | 0.05 | 2.77 | 2.77 | 98 | 1007.5 |
| 20260506114730 | 11 | 45 | 3.2 | 8.0 | 0.05 | 2.77 | 2.77 | 98 | 1007.5 |
| 20260506114540 | 11 | 45 | 4.8 | 9.7 | 0.05 | 2.77 | 2.77 | 98 | 1007.5 |
| 20260506114350 | 11 | 22 | 4.8 | 9.7 | 0.05 | 2.77 | 2.77 | 98 | 1007.4 |
| 20260506114155 | 11 | 45 | 4.8 | 9.7 | 0.05 | 2.77 | 2.77 | 98 | 1007.4 |
| 20260506113958 | 11 | 45 | 3.2 | 12.9 | 0.05 | 2.77 | 2.77 | 98 | 1007.4 |
| 20260506113811 | 11 | 45 | 3.2 | 12.9 | 0.05 | 2.77 | 2.77 | 98 | 1007.3 |
| 20260506113621 | 11 | 0 | 3.2 | 12.9 | 0.05 | 2.77 | 2.77 | 98 | 1007.3 |
| 20260506113424 | 12 | 22 | 3.2 | 8.0 | 0.05 | 2.77 | 2.77 | 98 | 1007.3 |
| 20260506113230 | 12 | 0 | 1.6 | 8.0 | 0.05 | 2.77 | 2.77 | 98 | 1007.3 |
| 20260506113038 | 12 | 338 | 1.6 | 4.8 | 0.05 | 2.77 | 2.77 | 98 | 1007.3 |
| 20260506112840 | 12 | 292 | 1.6 | 4.8 | 0.05 | 2.77 | 2.77 | 98 | 1007.3 |
| 20260506112653 | 12 | 315 | 1.6 | 4.8 | 0.05 | 2.77 | 2.77 | 98 | 1007.3 |
| 20260506112458 | 12 | 22 | 1.6 | 4.8 | 0.05 | 2.77 | 2.77 | 98 | 1007.3 |
| 20260506112258 | 12 | 22 | 0.0 | 3.2 | 0.00 | 2.72 | 2.72 | 98 | 1007.3 |
| 20260506112105 | 12 | 0 | 0.0 | 3.2 | 0.00 | 2.72 | 2.72 | 98 | 1007.2 |
| 20260506111920 | 12 | 0 | 0.0 | 6.4 | 0.00 | 2.72 | 2.72 | 98 | 1007.2 |
| 20260506111735 | 12 | 0 | 0.0 | 6.4 | 0.00 | 2.72 | 2.72 | 98 | 1007.3 |
| 20260506111555 | 12 | 0 | 0.0 | 6.4 | 0.00 | 2.72 | 2.72 | 98 | 1007.2 |
| 20260506111410 | 12 | 315 | 0.0 | 1.6 | 0.00 | 2.72 | 2.72 | 98 | 1007.2 |
| 20260506111236 | 12 | 315 | 0.0 | 1.6 | 0.00 | 2.72 | 2.72 | 98 | 1007.2 |
| 20260506111210 | 12 | 315 | 0.0 | 1.6 | 0.00 | 2.72 | 2.72 | 98 | 1007.2 |
| 20260506111030 | 12 | 22 | 1.6 | 3.2 | 0.00 | 2.72 | 2.72 | 98 | 1007.2 |
| 20260506110835 | 12 | 22 | 1.6 | 3.2 | 0.00 | 2.72 | 2.72 | 98 | 1007.2 |
| 20260506110650 | 12 | 292 | 1.6 | 3.2 | 0.00 | 2.72 | 2.72 | 98 | 1007.2 |
| 20260506110505 | 12 | 338 | 1.6 | 4.8 | 0.00 | 2.72 | 2.72 | 98 | 1007.3 |
| 20260506110325 | 12 | 45 | 1.6 | 4.8 | 0.00 | 2.72 | 2.72 | 98 | 1007.2 |
| 20260506110135 | 12 | 22 | 1.6 | 4.8 | 0.00 | 2.72 | 2.72 | 98 | 1007.2 |
| 20260506105958 | 12 | 0 | 1.6 | 3.2 | 0.00 | 2.72 | 2.72 | 98 | 1007.0 |
| 20260506105815 | 12 | 0 | 1.6 | 8.0 | 0.00 | 2.72 | 2.72 | 98 | 1007.1 |
| 20260506105615 | 12 | 0 | 3.2 | 8.0 | 0.00 | 2.72 | 2.72 | 98 | 1007.1 |
| 20260506105545 | 12 | 0 | 3.2 | 8.0 | 0.00 | 2.72 | 2.72 | 98 | 1007.1 |
| 20260506105415 | 12 | 0 | 1.6 | 8.0 | 0.00 | 2.72 | 2.72 | 98 | 1007.0 |
| 20260506105230 | 11 | 338 | 1.6 | 6.4 | 0.00 | 2.72 | 2.72 | 98 | 1007.1 |
| 20260506105050 | 11 | 338 | 1.6 | 3.2 | 0.00 | 2.72 | 2.72 | 98 | 1007.0 |
| 20260506104850 | 11 | 292 | 3.2 | 3.2 | 0.00 | 2.72 | 2.72 | 98 | 1007.1 |
| 20260506104710 | 11 | 270 | 1.6 | 3.2 | 0.00 | 2.72 | 2.72 | 98 | 1007.0 |
| 20260506104514 | 11 | 45 | 3.2 | 6.4 | 0.00 | 2.72 | 2.72 | 98 | 1007.1 |
| 20260506104318 | 11 | 22 | 3.2 | 8.0 | 0.00 | 2.72 | 2.72 | 98 | 1007.0 |
| 20260506104120 | 11 | 22 | 3.2 | 8.0 | 0.00 | 2.72 | 2.72 | 98 | 1007.0 |
| 20260506104021 | 11 | 22 | 3.2 | 8.0 | 0.05 | 2.72 | 2.72 | 98 | 1007.0 |
| 20260506103943 | 11 | 22 | 3.2 | 8.0 | 0.05 | 2.72 | 2.72 | 98 | 1007.0 |
| 20260506103745 | 11 | 45 | 3.2 | 8.0 | 0.05 | 2.72 | 2.72 | 98 | 1007.0 |
| 20260506103550 | 11 | 292 | 1.6 | 6.4 | 0.05 | 2.72 | 2.72 | 98 | 1006.9 |
| 20260506103358 | 11 | 292 | 3.2 | 6.4 | 0.05 | 2.72 | 2.72 | 98 | 1006.9 |
| 20260506103159 | 11 | 22 | 3.2 | 6.4 | 0.05 | 2.72 | 2.72 | 98 | 1007.0 |
| 20260506103010 | 11 | 45 | 3.2 | 9.7 | 0.05 | 2.72 | 2.72 | 98 | 1006.9 |
| 20260506102825 | 11 | 0 | 3.2 | 9.7 | 0.05 | 2.72 | 2.72 | 98 | 1006.9 |
| 20260506102638 | 11 | 0 | 3.2 | 9.7 | 0.05 | 2.72 | 2.72 | 98 | 1006.9 |
| 20260506102449 | 11 | 45 | 3.2 | 8.0 | 0.05 | 2.72 | 2.72 | 98 | 1006.8 |
| 20260506102310 | 11 | 45 | 3.2 | 8.0 | 0.05 | 2.72 | 2.72 | 98 | 1006.8 |
| 20260506102108 | 11 | 22 | 3.2 | 8.0 | 0.05 | 2.72 | 2.72 | 98 | 1006.8 |
| 20260506101918 | 11 | 338 | 3.2 | 4.8 | 0.05 | 2.72 | 2.72 | 98 | 1006.8 |
| 20260506101735 | 11 | 338 | 3.2 | 12.9 | 0.05 | 2.72 | 2.72 | 98 | 1006.9 |
| 20260506101554 | 11 | 45 | 3.2 | 12.9 | 0.05 | 2.72 | 2.72 | 98 | 1006.8 |
| 20260506101358 | 11 | 22 | 3.2 | 12.9 | 0.05 | 2.72 | 2.72 | 98 | 1006.8 |
| 20260506101205 | 11 | 45 | 3.2 | 8.0 | 0.05 | 2.72 | 2.72 | 99 | 1006.7 |
| 20260506101021 | 11 | 45 | 3.2 | 8.0 | 0.05 | 2.72 | 2.72 | 99 | 1006.8 |
| 20260506100932 | 11 | 45 | 3.2 | 8.0 | 0.05 | 2.72 | 2.72 | 99 | 1006.7 |
| 20260506100841 | 11 | 45 | 3.2 | 8.0 | 0.05 | 2.72 | 2.72 | 98 | 1006.7 |
| 20260506100645 | 11 | 270 | 1.6 | 3.2 | 0.05 | 2.72 | 2.72 | 99 | 1006.7 |
| 20260506100457 | 11 | 0 | 1.6 | 8.0 | 0.05 | 2.72 | 2.72 | 98 | 1006.7 |
| 20260506100315 | 11 | 45 | 3.2 | 8.0 | 0.05 | 2.72 | 2.72 | 99 | 1006.6 |
| 20260506100125 | 11 | 45 | 3.2 | 8.0 | 0.05 | 2.72 | 2.72 | 98 | 1006.7 |
| 20260506095945 | 11 | 22 | 3.2 | 9.7 | 0.05 | 2.72 | 2.72 | 99 | 1006.7 |
| 20260506095800 | 11 | 22 | 4.8 | 9.7 | 0.08 | 2.72 | 2.72 | 98 | 1006.6 |
| 20260506095605 | 11 | 22 | 6.4 | 9.7 | 0.08 | 2.72 | 2.72 | 98 | 1006.6 |
| 20260506095415 | 11 | 22 | 6.4 | 11.3 | 0.08 | 2.72 | 2.72 | 98 | 1006.5 |
| 20260506095228 | 11 | 45 | 4.8 | 11.3 | 0.08 | 2.72 | 2.72 | 98 | 1006.6 |
| 20260506095105 | 11 | 68 | 4.8 | 11.3 | 0.08 | 2.72 | 2.72 | 98 | 1006.5 |
| 20260506095035 | 11 | 22 | 4.8 | 11.3 | 0.08 | 2.72 | 2.72 | 98 | 1006.5 |
| 20260506094856 | 11 | 22 | 4.8 | 11.3 | 0.08 | 2.72 | 2.72 | 98 | 1006.5 |
| 20260506094700 | 11 | 338 | 4.8 | 8.0 | 0.13 | 2.72 | 2.72 | 98 | 1006.5 |
| 20260506094505 | 11 | 22 | 3.2 | 11.3 | 0.13 | 2.72 | 2.72 | 99 | 1006.5 |
| 20260506094325 | 11 | 0 | 4.8 | 11.3 | 0.13 | 2.72 | 2.72 | 99 | 1006.5 |
| 20260506094129 | 11 | 22 | 4.8 | 11.3 | 0.13 | 2.72 | 2.72 | 98 | 1006.5 |
| 20260506093935 | 11 | 22 | 4.8 | 9.7 | 0.13 | 2.72 | 2.72 | 99 | 1006.5 |
| 20260506093745 | 11 | 22 | 4.8 | 8.0 | 0.13 | 2.72 | 2.72 | 99 | 1006.4 |
| 20260506093600 | 11 | 22 | 3.2 | 9.7 | 0.13 | 2.69 | 2.69 | 99 | 1006.4 |
| 20260506093410 | 11 | 22 | 4.8 | 9.7 | 0.13 | 2.69 | 2.69 | 98 | 1006.4 |
| 20260506093220 | 11 | 248 | 3.2 | 9.7 | 0.13 | 2.69 | 2.69 | 98 | 1006.4 |
| 20260506093025 | 11 | 22 | 4.8 | 6.4 | 0.13 | 2.69 | 2.69 | 99 | 1006.4 |
| 20260506092836 | 11 | 45 | 4.8 | 8.0 | 0.13 | 2.69 | 2.69 | 99 | 1006.4 |
| 20260506092658 | 11 | 45 | 3.2 | 9.7 | 0.15 | 2.69 | 2.69 | 99 | 1006.4 |
| 20260506092506 | 11 | 22 | 4.8 | 14.5 | 0.15 | 2.69 | 2.69 | 99 | 1006.4 |
| 20260506092328 | 11 | 45 | 4.8 | 14.5 | 0.15 | 2.69 | 2.69 | 99 | 1006.4 |
| 20260506092130 | 11 | 45 | 3.2 | 14.5 | 0.20 | 2.69 | 2.69 | 99 | 1006.4 |
| 20260506091938 | 11 | 22 | 3.2 | 8.0 | 0.20 | 2.69 | 2.69 | 99 | 1006.3 |
| 20260506091740 | 11 | 45 | 4.8 | 8.0 | 0.20 | 2.69 | 2.69 | 99 | 1006.3 |
| 20260506091550 | 11 | 45 | 6.4 | 12.9 | 0.20 | 2.69 | 2.69 | 99 | 1006.3 |
| 20260506091457 | 11 | 45 | 6.4 | 12.9 | 0.20 | 2.69 | 2.69 | 99 | 1006.2 |
| 20260506091410 | 11 | 22 | 6.4 | 14.5 | 0.20 | 2.69 | 2.69 | 99 | 1006.3 |
| 20260506091215 | 11 | 22 | 6.4 | 14.5 | 0.20 | 2.69 | 2.69 | 99 | 1006.3 |
| 20260506091024 | 11 | 22 | 4.8 | 14.5 | 0.23 | 2.69 | 2.69 | 99 | 1006.3 |
| 20260506090842 | 11 | 22 | 4.8 | 14.5 | 0.23 | 2.69 | 2.69 | 99 | 1006.3 |
| 20260506090700 | 11 | 292 | 3.2 | 8.0 | 0.23 | 2.69 | 2.69 | 99 | 1006.2 |
| 20260506090515 | 11 | 22 | 3.2 | 8.0 | 0.28 | 2.69 | 2.69 | 99 | 1006.2 |
| 20260506090335 | 11 | 22 | 3.2 | 3.2 | 0.28 | 2.69 | 2.69 | 99 | 1006.2 |
| 20260506090142 | 11 | 45 | 3.2 | 6.4 | 0.28 | 2.69 | 2.69 | 99 | 1006.2 |
| 20260506085945 | 11 | 22 | 3.2 | 9.7 | 0.33 | 2.69 | 2.69 | 99 | 1006.2 |
| 20260506085805 | 11 | 22 | 3.2 | 9.7 | 0.33 | 2.69 | 2.69 | 99 | 1006.2 |
| 20260506085615 | 11 | 22 | 4.8 | 11.3 | 0.33 | 2.69 | 2.69 | 99 | 1006.2 |
| 20260506085602 | 11 | 315 | 4.8 | 11.3 | 0.33 | 2.69 | 2.69 | 99 | 1006.2 |
| 20260506085415 | 11 | 45 | 6.4 | 11.3 | 0.33 | 2.64 | 2.64 | 99 | 1006.1 |
| 20260506085215 | 11 | 22 | 6.4 | 12.9 | 0.33 | 2.64 | 2.64 | 99 | 1006.2 |
| 20260506085025 | 11 | 292 | 4.8 | 12.9 | 0.33 | 2.64 | 2.64 | 99 | 1006.2 |
| 20260506084850 | 11 | 45 | 6.4 | 12.9 | 0.36 | 2.64 | 2.64 | 99 | 1006.1 |
| 20260506084653 | 11 | 22 | 4.8 | 11.3 | 0.36 | 2.64 | 2.64 | 99 | 1006.1 |
| 20260506084454 | 11 | 22 | 3.2 | 12.9 | 0.36 | 2.64 | 2.64 | 99 | 1006.1 |
| 20260506084310 | 11 | 22 | 3.2 | 14.5 | 0.33 | 2.59 | 2.59 | 99 | 1006.1 |
| 20260506084110 | 11 | 22 | 3.2 | 14.5 | 0.33 | 2.59 | 2.59 | 99 | 1006.1 |
| 20260506083920 | 11 | 22 | 3.2 | 14.5 | 0.33 | 2.59 | 2.59 | 99 | 1006.2 |
| 20260506083735 | 11 | 45 | 3.2 | 8.0 | 0.36 | 2.59 | 2.59 | 99 | 1006.1 |
| 20260506083715 | 11 | 22 | 3.2 | 8.0 | 0.36 | 2.59 | 2.59 | 99 | 1006.0 |
| 20260506083555 | 11 | 22 | 3.2 | 8.0 | 0.36 | 2.59 | 2.59 | 99 | 1006.0 |
| 20260506083418 | 11 | 22 | 3.2 | 8.0 | 0.36 | 2.59 | 2.59 | 99 | 1006.1 |
| 20260506083240 | 11 | 270 | 3.2 | 8.0 | 0.36 | 2.57 | 2.57 | 99 | 1006.0 |
| 20260506083058 | 11 | 0 | 3.2 | 8.0 | 0.36 | 2.57 | 2.57 | 99 | 1006.1 |
| 20260506082904 | 11 | 22 | 3.2 | 9.7 | 0.36 | 2.57 | 2.57 | 99 | 1006.1 |
| 20260506082715 | 11 | 22 | 1.6 | 8.0 | 0.43 | 2.57 | 2.57 | 99 | 1006.0 |
| 20260506082519 | 11 | 22 | 1.6 | 8.0 | 0.43 | 2.57 | 2.57 | 99 | 1006.0 |
| 20260506082325 | 11 | 22 | 1.6 | 0.0 | 0.43 | 2.57 | 2.57 | 99 | 1006.0 |
| 20260506082140 | 10 | 22 | 1.6 | 6.4 | 0.43 | 2.51 | 2.51 | 99 | 1006.0 |
| 20260506082031 | 10 | 22 | 1.6 | 6.4 | 0.43 | 2.51 | 2.51 | 99 | 1006.0 |
| 20260506081950 | 10 | 22 | 3.2 | 6.4 | 0.43 | 2.51 | 2.51 | 99 | 1005.9 |
| 20260506081755 | 10 | 22 | 3.2 | 8.0 | 0.43 | 2.51 | 2.51 | 99 | 1006.0 |
| 20260506081615 | 10 | 22 | 3.2 | 8.0 | 0.48 | 2.49 | 2.49 | 99 | 1005.9 |
| 20260506081430 | 10 | 22 | 3.2 | 8.0 | 0.48 | 2.49 | 2.49 | 99 | 1006.0 |
| 20260506081235 | 10 | 68 | 3.2 | 8.0 | 0.48 | 2.49 | 2.49 | 99 | 1006.0 |
| 20260506081100 | 10 | 68 | 3.2 | 8.0 | 0.61 | 2.49 | 2.49 | 99 | 1006.0 |
| 20260506080910 | 10 | 315 | 3.2 | 6.4 | 0.61 | 2.49 | 2.49 | 99 | 1006.0 |
| 20260506080715 | 10 | 225 | 3.2 | 8.0 | 0.61 | 2.49 | 2.49 | 99 | 1006.0 |
| 20260506080535 | 10 | 45 | 4.8 | 9.7 | 0.61 | 2.44 | 2.44 | 99 | 1005.9 |
| 20260506080350 | 10 | 45 | 4.8 | 9.7 | 0.61 | 2.44 | 2.44 | 99 | 1006.0 |
| 20260506080315 | 10 | 68 | 4.8 | 9.7 | 0.61 | 2.44 | 2.44 | 99 | 1005.9 |
| 20260506080150 | 10 | 22 | 4.8 | 11.3 | 0.61 | 2.44 | 2.44 | 99 | 1005.9 |
| 20260506073427 | 10 | 22 | 4.8 | 12.9 | 0.79 | 2.24 | 2.24 | 99 | 1005.7 |
| 20260506073250 | 10 | 0 | 4.8 | 12.9 | 0.79 | 2.24 | 2.24 | 99 | 1005.7 |
| 20260506073110 | 10 | 22 | 3.2 | 8.0 | 0.79 | 2.24 | 2.24 | 99 | 1005.8 |
| 20260506072920 | 10 | 45 | 3.2 | 8.0 | 0.79 | 2.21 | 2.21 | 99 | 1005.7 |
| 20260506072725 | 10 | 90 | 3.2 | 8.0 | 0.79 | 2.21 | 2.21 | 99 | 1005.8 |
| 20260506072707 | 10 | 90 | 3.2 | 8.0 | 0.79 | 2.21 | 2.21 | 99 | 1005.8 |
| 20260506072545 | 10 | 22 | 3.2 | 8.0 | 0.79 | 2.21 | 2.21 | 99 | 1005.8 |
| 20260506072400 | 10 | 22 | 3.2 | 8.0 | 0.84 | 2.11 | 2.11 | 99 | 1005.8 |
| 20260506072213 | 10 | 292 | 3.2 | 8.0 | 0.84 | 2.11 | 2.11 | 99 | 1005.7 |
| 20260506072015 | 10 | 338 | 1.6 | 8.0 | 0.84 | 2.11 | 2.11 | 99 | 1005.8 |
| 20260506071820 | 10 | 22 | 1.6 | 8.0 | 0.84 | 2.08 | 2.08 | 99 | 1005.8 |
| 20260506071630 | 10 | 22 | 1.6 | 8.0 | 0.84 | 2.08 | 2.08 | 99 | 1005.8 |
| 20260506071428 | 10 | 22 | 1.6 | 6.4 | 0.84 | 2.08 | 2.08 | 99 | 1005.8 |
| 20260506071238 | 10 | 22 | 1.6 | 6.4 | 0.76 | 2.01 | 2.01 | 99 | 1005.8 |
| 20260506071055 | 10 | 22 | 0.0 | 3.2 | 0.76 | 2.01 | 2.01 | 99 | 1005.7 |
| 20260506070859 | 10 | 22 | 1.6 | 3.2 | 0.76 | 2.01 | 2.01 | 99 | 1005.7 |
| 20260506070707 | 10 | 22 | 1.6 | 3.2 | 0.69 | 1.88 | 1.88 | 99 | 1005.7 |
| 20260506070510 | 10 | 22 | 1.6 | 8.0 | 0.69 | 1.88 | 1.88 | 99 | 1005.7 |
| 20260506070315 | 10 | 0 | 1.6 | 8.0 | 0.64 | 1.83 | 1.83 | 99 | 1005.7 |
| 20260506070125 | 10 | 45 | 1.6 | 8.0 | 0.64 | 1.83 | 1.83 | 99 | 1005.7 |
| 20260506062348 | 10 | 22 | 3.2 | 11.3 | 0.23 | 1.40 | 1.40 | 99 | 1005.4 |
| 20260506062200 | 10 | 22 | 1.6 | 9.7 | 0.23 | 1.40 | 1.40 | 99 | 1005.4 |
| 20260506062015 | 10 | 22 | 1.6 | 4.8 | 0.13 | 1.27 | 1.27 | 99 | 1005.4 |
| 20260506061922 | 10 | 22 | 1.6 | 4.8 | 0.13 | 1.27 | 1.27 | 99 | 1005.5 |
| 20260506061835 | 10 | 22 | 1.6 | 4.8 | 0.13 | 1.27 | 1.27 | 99 | 1005.5 |
| 20260506061658 | 10 | 68 | 1.6 | 3.2 | 0.13 | 1.27 | 1.27 | 99 | 1005.4 |
| 20260506061513 | 10 | 45 | 1.6 | 8.0 | 0.08 | 1.24 | 1.24 | 99 | 1005.5 |
| 20260506061335 | 10 | 45 | 1.6 | 8.0 | 0.08 | 1.24 | 1.24 | 99 | 1005.4 |
| 20260506061155 | 10 | 45 | 1.6 | 8.0 | 0.08 | 1.24 | 1.24 | 99 | 1005.4 |
| 20260506061000 | 10 | 22 | 1.6 | 4.8 | 0.08 | 1.24 | 1.24 | 99 | 1005.4 |
| 20260506060825 | 10 | 22 | 1.6 | 4.8 | 0.08 | 1.24 | 1.24 | 99 | 1005.4 |
| 20260506060625 | 10 | 45 | 1.6 | 4.8 | 0.08 | 1.24 | 1.24 | 99 | 1005.4 |
| 20260506060445 | 10 | 45 | 1.6 | 3.2 | 0.08 | 1.19 | 1.19 | 99 | 1005.4 |
| 20260506060300 | 10 | 45 | 1.6 | 9.7 | 0.08 | 1.19 | 1.19 | 99 | 1005.3 |
| 20260506060118 | 10 | 22 | 3.2 | 9.7 | 0.08 | 1.19 | 1.19 | 99 | 1005.2 |